Darstellungsparameter: Aktuell verwendete Einstellungen:
Skalierung der Graphiken ... ?
xyx+y,   Skalierungsfaktor:      Skalierung: Modus: x, Faktor: 1
Darstellungszeitraum ... ?
Vom - - bis: - -   Zeitraum: 05.10.2019 - 10.10.2019
Min/Max/Avg-Anzeige ... ?
Zeige MMA aktuell
Zeige MMA Monat
Zeige MMA alles
Zeige --A aktuell
Zeige --A Monat
Zeige --A alles
Keine MMA-Anzeige
MMA:
Average (ber die Originaldaten)
MMA-Basis: 05.10.2019 - 10.10.2019
Quicknavigation für Darstellung... ?
Tage:      1T, 2T, 3T, 5T -1T -2T -3T -5T +1T +2T +3T +5T
Wochen: 1W, 2W, 3W -1W -2W -3W +1W +2W +3W
Monate: 1M, 3M, 6M -1M -3M -6M +1M +3M +6M
Jahre:    1J, 3J, 5J, 10J -1J -3J -5J -10J +1J +3J +5J +10J
Nutze für die Darstellung ... ?
Originaldaten oder Mittelwerte auf ...
Stundenbasis Tagesbasis Wochenbasis
Monatsbasis Jahresbasis      Datenbasis: Original-Daten
Darstellen als:
Statistik (Auto) Statistik J:M      Darstellung:
Zur Graphik,    zurück zur Übersicht aller Sensoren.
 
Tabellarische Datenbersicht: ?
 
Sensor: Nr:Datum:Temp:Abs-Feuchte:Windchill:Wind:
Aussen-T/F 1 05-10-2019 00:00:00 11.8 C 9.89 g/m*3 11.8 C 11.3 km/h
2 05-10-2019 00:05:00 11.8 C 9.89 g/m*3 11.8 C 6.4 km/h
3 05-10-2019 00:10:00 11.8 C 9.89 g/m*3 11.8 C 3.2 km/h
4 05-10-2019 00:15:00 11.9 C 9.96 g/m*3 11.9 C 4.8 km/h
5 05-10-2019 00:20:00 11.9 C 9.85 g/m*3 11.9 C 6.4 km/h
6 05-10-2019 00:25:00 11.9 C 9.74 g/m*3 11.9 C 11.3 km/h
7 05-10-2019 00:30:00 12 C 9.8 g/m*3 12 C 3.2 km/h
8 05-10-2019 00:35:00 12 C 9.8 g/m*3 12 C 6.4 km/h
9 05-10-2019 00:40:00 12.1 C 9.87 g/m*3 12.1 C 9.7 km/h
10 05-10-2019 00:45:00 12.1 C 9.87 g/m*3 12.1 C 4.8 km/h
11 05-10-2019 00:50:00 12.1 C 9.87 g/m*3 12.1 C 8.1 km/h
12 05-10-2019 00:55:00 12.2 C 9.82 g/m*3 12.2 C 9.7 km/h
13 05-10-2019 01:00:00 12.2 C 9.93 g/m*3 12.2 C 11.3 km/h
14 05-10-2019 01:05:00 12.3 C 9.99 g/m*3 12.3 C 9.7 km/h
15 05-10-2019 01:10:00 12.3 C 9.99 g/m*3 12.3 C 1.6 km/h
16 05-10-2019 01:15:00 12.2 C 9.93 g/m*3 12.2 C 1.6 km/h
17 05-10-2019 01:20:00 12.2 C 9.93 g/m*3 12.2 C 1.6 km/h
18 05-10-2019 01:25:00 12.1 C 9.87 g/m*3 12.1 C 11.3 km/h
19 05-10-2019 01:30:00 12 C 9.8 g/m*3 12 C 9.7 km/h
20 05-10-2019 01:35:00 11.9 C 9.74 g/m*3 11.9 C 1.6 km/h
21 05-10-2019 01:40:00 11.9 C 9.74 g/m*3 11.9 C 6.4 km/h
22 05-10-2019 01:45:00 11.9 C 9.74 g/m*3 11.9 C 11.3 km/h
23 05-10-2019 01:50:00 12 C 9.8 g/m*3 12 C 8.1 km/h
24 05-10-2019 01:55:00 12.1 C 9.87 g/m*3 12.1 C 8.1 km/h
25 05-10-2019 02:00:00 12 C 9.8 g/m*3 12 C 3.2 km/h
Sensor: Nr:Datum:Temp:Abs-Feuchte:Windchill:Wind:
Aussen-T/F 26 05-10-2019 02:05:00 11.9 C 9.74 g/m*3 11.9 C 4.8 km/h
27 05-10-2019 02:10:00 12 C 9.8 g/m*3 12 C 9.7 km/h
28 05-10-2019 02:15:00 12.1 C 9.76 g/m*3 12.1 C 14.5 km/h
29 05-10-2019 02:20:00 12.2 C 9.82 g/m*3 12.2 C 6.4 km/h
30 05-10-2019 02:25:00 12.2 C 9.82 g/m*3 12.2 C 11.3 km/h
31 05-10-2019 02:30:00 12.3 C 9.77 g/m*3 12.3 C 4.8 km/h
32 05-10-2019 02:35:00 12.3 C 9.88 g/m*3 12.3 C 3.2 km/h
33 05-10-2019 02:40:00 12.3 C 9.77 g/m*3 12.3 C 11.3 km/h
34 05-10-2019 02:45:00 12.4 C 9.72 g/m*3 12.4 C 6.4 km/h
35 05-10-2019 02:50:00 12.5 C 9.78 g/m*3 12.5 C 3.2 km/h
36 05-10-2019 02:55:00 12.5 C 9.89 g/m*3 12.5 C 12.9 km/h
37 05-10-2019 03:00:00 12.5 C 9.78 g/m*3 12.5 C 14.5 km/h
38 05-10-2019 03:05:00 12.5 C 9.89 g/m*3 12.5 C 4.8 km/h
39 05-10-2019 03:10:00 12.5 C 9.89 g/m*3 12.5 C 4.8 km/h
40 05-10-2019 03:15:00 12.4 C 9.94 g/m*3 12.4 C 4.8 km/h
41 05-10-2019 03:20:00 12.4 C 9.94 g/m*3 12.4 C 1.6 km/h
42 05-10-2019 03:25:00 12.3 C 9.99 g/m*3 12.3 C 1.6 km/h
43 05-10-2019 03:30:00 12.3 C 9.99 g/m*3 12.3 C 0 km/h
44 05-10-2019 03:35:00 12.2 C 9.93 g/m*3 12.2 C 0 km/h
45 05-10-2019 03:40:00 12.2 C 10.04 g/m*3 12.2 C 0 km/h
46 05-10-2019 03:45:00 12.1 C 9.97 g/m*3 12.1 C 0 km/h
47 05-10-2019 03:50:00 12.1 C 9.97 g/m*3 12.1 C 0 km/h
48 05-10-2019 03:55:00 12.1 C 9.97 g/m*3 12.1 C 6.4 km/h
49 05-10-2019 04:00:00 12 C 9.91 g/m*3 12 C 8.1 km/h
50 05-10-2019 04:05:00 11.9 C 9.85 g/m*3 11.9 C 4.8 km/h
Sensor: Nr:Datum:Temp:Abs-Feuchte:Windchill:Wind:
Aussen-T/F 51 05-10-2019 04:10:00 11.8 C 9.79 g/m*3 11.8 C 9.7 km/h
52 05-10-2019 04:15:00 11.7 C 9.73 g/m*3 11.7 C 3.2 km/h
53 05-10-2019 04:20:00 11.6 C 9.67 g/m*3 11.6 C 4.8 km/h
54 05-10-2019 04:25:00 11.6 C 9.67 g/m*3 11.6 C 6.4 km/h
55 05-10-2019 04:30:00 11.5 C 9.61 g/m*3 11.5 C 0 km/h
56 05-10-2019 04:35:00 11.4 C 9.55 g/m*3 11.4 C 9.7 km/h
57 05-10-2019 04:40:00 11.3 C 9.49 g/m*3 11.3 C 8.1 km/h
58 05-10-2019 04:45:00 11.3 C 9.49 g/m*3 11.3 C 4.8 km/h
59 05-10-2019 04:50:00 11.3 C 9.49 g/m*3 11.3 C 8.1 km/h
60 05-10-2019 04:55:00 11.2 C 9.53 g/m*3 11.2 C 3.2 km/h
61 05-10-2019 05:00:00 11.2 C 9.43 g/m*3 11.2 C 11.3 km/h
62 05-10-2019 05:05:00 11.1 C 9.37 g/m*3 11.1 C 8.1 km/h
63 05-10-2019 05:10:00 11 C 9.31 g/m*3 10.52 C 6.4 km/h
64 05-10-2019 05:15:00 10.9 C 9.25 g/m*3 10.41 C 6.4 km/h
65 05-10-2019 05:20:00 10.8 C 9.29 g/m*3 9.93 C 8.1 km/h
66 05-10-2019 05:25:00 10.8 C 9.29 g/m*3 10.8 C 4.8 km/h
67 05-10-2019 05:30:00 10.8 C 9.19 g/m*3 9.93 C 8.1 km/h
68 05-10-2019 05:35:00 10.7 C 9.23 g/m*3 10.7 C 3.2 km/h
69 05-10-2019 05:40:00 10.6 C 9.17 g/m*3 9.14 C 11.3 km/h
70 05-10-2019 05:45:00 10.5 C 9.12 g/m*3 10.5 C 3.2 km/h
71 05-10-2019 05:50:00 10.4 C 8.96 g/m*3 9.83 C 6.4 km/h
72 05-10-2019 05:55:00 10.3 C 8.91 g/m*3 10.3 C 0 km/h
73 05-10-2019 06:00:00 10.3 C 8.91 g/m*3 10.3 C 1.6 km/h
74 05-10-2019 06:05:00 10.3 C 8.91 g/m*3 10.3 C 0 km/h
75 05-10-2019 06:10:00 10.3 C 9 g/m*3 10.3 C 1.6 km/h
Sensor: Nr:Datum:Temp:Abs-Feuchte:Windchill:Wind:
Aussen-T/F 76 05-10-2019 06:15:00 10.2 C 8.95 g/m*3 10.2 C 3.2 km/h
77 05-10-2019 06:20:00 10.2 C 8.95 g/m*3 9.22 C 8.1 km/h
78 05-10-2019 06:25:00 10.2 C 8.95 g/m*3 10.2 C 4.8 km/h
79 05-10-2019 06:30:00 10.2 C 8.95 g/m*3 10.2 C 3.2 km/h
80 05-10-2019 06:35:00 10.2 C 8.95 g/m*3 10.2 C 4.8 km/h
81 05-10-2019 06:40:00 10.1 C 8.89 g/m*3 10.1 C 0 km/h
82 05-10-2019 06:45:00 10.2 C 8.95 g/m*3 10.2 C 0 km/h
83 05-10-2019 06:50:00 10.2 C 8.95 g/m*3 10.2 C 0 km/h
84 05-10-2019 06:55:00 10.1 C 8.89 g/m*3 10.1 C 0 km/h
85 05-10-2019 07:00:00 10.1 C 8.89 g/m*3 10.1 C 3.2 km/h
86 05-10-2019 07:05:00 10.1 C 8.89 g/m*3 10.1 C 4.8 km/h
87 05-10-2019 07:10:00 10.1 C 8.89 g/m*3 10.1 C 0 km/h
88 05-10-2019 07:15:00 10.1 C 8.89 g/m*3 9.48 C 6.4 km/h
89 05-10-2019 07:20:00 10.1 C 8.89 g/m*3 10.1 C 4.8 km/h
90 05-10-2019 07:25:00 10.1 C 8.79 g/m*3 10.1 C 3.2 km/h
91 05-10-2019 07:30:00 9.9 C 8.68 g/m*3 9.25 C 6.4 km/h
92 05-10-2019 07:35:00 9.9 C 8.68 g/m*3 9.9 C 0 km/h
93 05-10-2019 07:40:00 9.9 C 8.68 g/m*3 9.9 C 1.6 km/h
94 05-10-2019 07:45:00 9.9 C 8.68 g/m*3 9.25 C 6.4 km/h
95 05-10-2019 07:50:00 9.8 C 8.63 g/m*3 9.14 C 6.4 km/h
96 05-10-2019 07:55:00 9.8 C 8.63 g/m*3 9.8 C 0 km/h
97 05-10-2019 08:00:00 9.8 C 8.63 g/m*3 9.8 C 1.6 km/h
98 05-10-2019 08:05:00 9.8 C 8.63 g/m*3 9.8 C 4.8 km/h
99 05-10-2019 08:10:00 9.7 C 8.48 g/m*3 9.7 C 4.8 km/h
100 05-10-2019 08:15:00 9.8 C 8.54 g/m*3 9.8 C 1.6 km/h
Sensor: Nr:Datum:Temp:Abs-Feuchte:Windchill:Wind:
Aussen-T/F 101 05-10-2019 08:20:00 9.8 C 8.54 g/m*3 9.8 C 1.6 km/h
102 05-10-2019 08:25:00 9.7 C 8.48 g/m*3 9.7 C 1.6 km/h
103 05-10-2019 08:30:00 9.8 C 8.54 g/m*3 9.8 C 4.8 km/h
104 05-10-2019 08:35:00 9.8 C 8.54 g/m*3 9.8 C 0 km/h
105 05-10-2019 08:40:00 9.9 C 8.59 g/m*3 9.9 C 0 km/h
106 05-10-2019 08:45:00 9.9 C 8.5 g/m*3 9.9 C 4.8 km/h
107 05-10-2019 08:50:00 9.9 C 8.5 g/m*3 9.9 C 1.6 km/h
108 05-10-2019 08:55:00 9.9 C 8.5 g/m*3 9.9 C 0 km/h
109 05-10-2019 09:00:00 10 C 8.55 g/m*3 10 C 1.6 km/h
110 05-10-2019 09:05:00 10.1 C 8.61 g/m*3 10.1 C 3.2 km/h
111 05-10-2019 09:10:00 10.1 C 8.61 g/m*3 10.1 C 3.2 km/h
112 05-10-2019 09:15:00 10.1 C 8.61 g/m*3 9.48 C 6.4 km/h
113 05-10-2019 09:20:00 10.1 C 8.61 g/m*3 10.1 C 3.2 km/h
114 05-10-2019 09:25:00 10.2 C 8.66 g/m*3 10.2 C 4.8 km/h
115 05-10-2019 09:30:00 10.2 C 8.66 g/m*3 9.6 C 6.4 km/h
116 05-10-2019 09:35:00 10.2 C 8.56 g/m*3 9.22 C 8.1 km/h
117 05-10-2019 09:40:00 10.3 C 8.71 g/m*3 9.72 C 6.4 km/h
118 05-10-2019 09:45:00 10.3 C 8.62 g/m*3 10.3 C 4.8 km/h
119 05-10-2019 09:50:00 10.3 C 8.62 g/m*3 10.3 C 4.8 km/h
120 05-10-2019 09:55:00 10.3 C 8.62 g/m*3 9.72 C 6.4 km/h
121 05-10-2019 10:00:00 10.4 C 8.67 g/m*3 10.4 C 4.8 km/h
122 05-10-2019 10:05:00 10.4 C 8.67 g/m*3 9.83 C 6.4 km/h
123 05-10-2019 10:10:00 10.4 C 8.67 g/m*3 10.4 C 4.8 km/h
124 05-10-2019 10:15:00 10.4 C 8.67 g/m*3 9.83 C 6.4 km/h
125 05-10-2019 10:20:00 10.5 C 8.63 g/m*3 9.95 C 6.4 km/h
Sensor: Nr:Datum:Temp:Abs-Feuchte:Windchill:Wind:
Aussen-T/F 126 05-10-2019 10:25:00 10.6 C 8.59 g/m*3 9.4 C 9.7 km/h
127 05-10-2019 10:30:00 10.6 C 8.69 g/m*3 9.4 C 9.7 km/h
128 05-10-2019 10:35:00 10.6 C 8.59 g/m*3 8.92 C 12.9 km/h
129 05-10-2019 10:40:00 10.7 C 8.64 g/m*3 9.04 C 12.9 km/h
130 05-10-2019 10:45:00 10.7 C 8.55 g/m*3 9.52 C 9.7 km/h
131 05-10-2019 10:50:00 10.7 C 8.45 g/m*3 9.81 C 8.1 km/h
132 05-10-2019 10:55:00 10.7 C 8.45 g/m*3 9.81 C 8.1 km/h
133 05-10-2019 11:00:00 10.7 C 8.25 g/m*3 9.81 C 8.1 km/h
134 05-10-2019 11:05:00 10.7 C 8.15 g/m*3 10.18 C 6.4 km/h
135 05-10-2019 11:10:00 10.8 C 8.2 g/m*3 10.29 C 6.4 km/h
136 05-10-2019 11:15:00 10.7 C 8.05 g/m*3 9.52 C 9.7 km/h
137 05-10-2019 11:20:00 10.7 C 8.05 g/m*3 9.52 C 9.7 km/h
138 05-10-2019 11:25:00 10.7 C 8.05 g/m*3 9.52 C 9.7 km/h
139 05-10-2019 11:30:00 10.7 C 7.96 g/m*3 9.52 C 9.7 km/h
140 05-10-2019 11:35:00 10.7 C 8.05 g/m*3 9.52 C 9.7 km/h
141 05-10-2019 11:40:00 10.7 C 8.15 g/m*3 9.81 C 8.1 km/h
142 05-10-2019 11:45:00 10.7 C 8.15 g/m*3 10.18 C 6.4 km/h
143 05-10-2019 11:50:00 10.7 C 8.05 g/m*3 9.81 C 8.1 km/h
144 05-10-2019 11:55:00 10.7 C 8.15 g/m*3 9.26 C 11.3 km/h
145 05-10-2019 12:00:00 10.7 C 8.25 g/m*3 9.52 C 9.7 km/h
146 05-10-2019 12:05:00 10.8 C 8.3 g/m*3 9.64 C 9.7 km/h
147 05-10-2019 12:10:00 11 C 8.41 g/m*3 10.16 C 8.1 km/h
148 05-10-2019 12:15:00 11.1 C 8.36 g/m*3 11.1 C 6.4 km/h
149 05-10-2019 12:20:00 11.2 C 8.21 g/m*3 11.2 C 9.7 km/h
150 05-10-2019 12:25:00 11.2 C 8.11 g/m*3 11.2 C 6.4 km/h
Sensor: Nr:Datum:Temp:Abs-Feuchte:Windchill:Wind:
Aussen-T/F 151 05-10-2019 12:30:00 11.2 C 8.01 g/m*3 11.2 C 6.4 km/h
152 05-10-2019 12:35:00 11.2 C 8.01 g/m*3 11.2 C 3.2 km/h
153 05-10-2019 12:40:00 11.3 C 8.16 g/m*3 11.3 C 4.8 km/h
154 05-10-2019 12:45:00 11.4 C 7.9 g/m*3 11.4 C 8.1 km/h
155 05-10-2019 12:50:00 11.6 C 8.11 g/m*3 11.6 C 3.2 km/h
156 05-10-2019 12:55:00 11.7 C 8.16 g/m*3 11.7 C 3.2 km/h
157 05-10-2019 13:00:00 11.7 C 8.16 g/m*3 11.7 C 6.4 km/h
158 05-10-2019 13:05:00 11.7 C 8.16 g/m*3 11.7 C 4.8 km/h
159 05-10-2019 13:10:00 11.7 C 8.05 g/m*3 11.7 C 3.2 km/h
160 05-10-2019 13:15:00 11.8 C 8.21 g/m*3 11.8 C 6.4 km/h
161 05-10-2019 13:20:00 11.9 C 8.26 g/m*3 11.9 C 6.4 km/h
162 05-10-2019 13:25:00 11.9 C 8.26 g/m*3 11.9 C 4.8 km/h
163 05-10-2019 13:30:00 12 C 8.21 g/m*3 12 C 3.2 km/h
164 05-10-2019 13:35:00 12 C 8.1 g/m*3 12 C 3.2 km/h
165 05-10-2019 13:40:00 12 C 8.31 g/m*3 12 C 0 km/h
166 05-10-2019 13:45:00 12.1 C 8.36 g/m*3 12.1 C 4.8 km/h
167 05-10-2019 13:50:00 12 C 8.21 g/m*3 12 C 3.2 km/h
168 05-10-2019 13:55:00 12 C 8.31 g/m*3 12 C 4.8 km/h
169 05-10-2019 14:00:00 11.9 C 8.15 g/m*3 11.9 C 6.4 km/h
170 05-10-2019 14:05:00 11.9 C 8.26 g/m*3 11.9 C 3.2 km/h
171 05-10-2019 14:10:00 11.9 C 8.26 g/m*3 11.9 C 4.8 km/h
172 05-10-2019 14:15:00 11.8 C 8.21 g/m*3 11.8 C 8.1 km/h
173 05-10-2019 14:20:00 11.8 C 8.31 g/m*3 11.8 C 1.6 km/h
174 05-10-2019 14:25:00 11.8 C 8.31 g/m*3 11.8 C 1.6 km/h
175 05-10-2019 14:30:00 11.8 C 8.21 g/m*3 11.8 C 3.2 km/h
Sensor: Nr:Datum:Temp:Abs-Feuchte:Windchill:Wind:
Aussen-T/F 176 05-10-2019 14:35:00 11.8 C 8.21 g/m*3 11.8 C 0 km/h
177 05-10-2019 14:40:00 11.9 C 8.26 g/m*3 11.9 C 0 km/h
178 05-10-2019 14:45:00 11.9 C 8.26 g/m*3 11.9 C 0 km/h
179 05-10-2019 14:50:00 12.1 C 8.26 g/m*3 12.1 C 0 km/h
180 05-10-2019 14:55:00 12.1 C 8.47 g/m*3 12.1 C 0 km/h
181 05-10-2019 15:00:00 12.2 C 8.63 g/m*3 12.2 C 0 km/h
182 05-10-2019 15:05:00 12.3 C 8.47 g/m*3 12.3 C 1.6 km/h
183 05-10-2019 15:10:00 12.3 C 8.36 g/m*3 12.3 C 3.2 km/h
184 05-10-2019 15:15:00 12.2 C 8.31 g/m*3 12.2 C 1.6 km/h
185 05-10-2019 15:20:00 12.2 C 8.31 g/m*3 12.2 C 3.2 km/h
186 05-10-2019 15:25:00 12.2 C 8.2 g/m*3 12.2 C 1.6 km/h
187 05-10-2019 15:30:00 12.2 C 8.31 g/m*3 12.2 C 0 km/h
188 05-10-2019 15:35:00 12.2 C 8.2 g/m*3 12.2 C 0 km/h
189 05-10-2019 15:40:00 12.2 C 8.31 g/m*3 12.2 C 0 km/h
190 05-10-2019 15:45:00 12.2 C 8.42 g/m*3 12.2 C 0 km/h
191 05-10-2019 15:50:00 12.3 C 8.36 g/m*3 12.3 C 0 km/h
192 05-10-2019 15:55:00 12.3 C 8.47 g/m*3 12.3 C 0 km/h
193 05-10-2019 16:00:00 12.3 C 8.36 g/m*3 12.3 C 6.4 km/h
194 05-10-2019 16:05:00 12.3 C 8.36 g/m*3 12.3 C 1.6 km/h
195 05-10-2019 16:10:00 12.3 C 8.47 g/m*3 12.3 C 0 km/h
196 05-10-2019 16:15:00 12.3 C 8.8 g/m*3 12.3 C 0 km/h
197 05-10-2019 16:20:00 12.3 C 8.69 g/m*3 12.3 C 0 km/h
198 05-10-2019 16:25:00 12.3 C 8.58 g/m*3 12.3 C 0 km/h
199 05-10-2019 16:30:00 12.3 C 8.69 g/m*3 12.3 C 0 km/h
200 05-10-2019 16:35:00 12.3 C 8.8 g/m*3 12.3 C 0 km/h
Sensor: Nr:Datum:Temp:Abs-Feuchte:Windchill:Wind:
Aussen-T/F 201 05-10-2019 16:40:00 12.3 C 8.9 g/m*3 12.3 C 0 km/h
202 05-10-2019 16:45:00 12.3 C 9.01 g/m*3 12.3 C 0 km/h
203 05-10-2019 16:50:00 12.3 C 9.12 g/m*3 12.3 C 0 km/h
204 05-10-2019 16:55:00 12.3 C 9.23 g/m*3 12.3 C 0 km/h
205 05-10-2019 17:00:00 12.3 C 9.23 g/m*3 12.3 C 0 km/h
206 05-10-2019 17:05:00 12.3 C 9.23 g/m*3 12.3 C 0 km/h
207 05-10-2019 17:10:00 12.3 C 9.34 g/m*3 12.3 C 0 km/h
208 05-10-2019 17:15:00 12.2 C 9.17 g/m*3 12.2 C 1.6 km/h
209 05-10-2019 17:20:00 12.1 C 8.79 g/m*3 12.1 C 0 km/h
210 05-10-2019 17:25:00 12.1 C 8.9 g/m*3 12.1 C 0 km/h
211 05-10-2019 17:30:00 12 C 8.74 g/m*3 12 C 0 km/h
212 05-10-2019 17:35:00 12 C 8.95 g/m*3 12 C 0 km/h
213 05-10-2019 17:40:00 11.9 C 8.9 g/m*3 11.9 C 0 km/h
214 05-10-2019 17:45:00 11.9 C 8.79 g/m*3 11.9 C 0 km/h
215 05-10-2019 17:50:00 11.9 C 9 g/m*3 11.9 C 0 km/h
216 05-10-2019 17:55:00 11.8 C 8.95 g/m*3 11.8 C 0 km/h
217 05-10-2019 18:00:00 11.8 C 8.95 g/m*3 11.8 C 0 km/h
218 05-10-2019 18:05:00 11.7 C 8.89 g/m*3 11.7 C 0 km/h
219 05-10-2019 18:10:00 11.5 C 8.78 g/m*3 11.5 C 0 km/h
220 05-10-2019 18:15:00 11.4 C 8.72 g/m*3 11.4 C 0 km/h
221 05-10-2019 18:20:00 11.3 C 8.77 g/m*3 11.3 C 0 km/h
222 05-10-2019 18:25:00 11.2 C 8.62 g/m*3 11.2 C 0 km/h
223 05-10-2019 18:30:00 11.1 C 8.66 g/m*3 11.1 C 0 km/h
224 05-10-2019 18:35:00 11 C 8.61 g/m*3 11 C 0 km/h
225 05-10-2019 18:40:00 10.8 C 8.5 g/m*3 10.8 C 0 km/h
Sensor: Nr:Datum:Temp:Abs-Feuchte:Windchill:Wind:
Aussen-T/F 226 05-10-2019 18:45:00 10.7 C 8.45 g/m*3 10.7 C 0 km/h
227 05-10-2019 18:50:00 10.6 C 8.49 g/m*3 10.6 C 0 km/h
228 05-10-2019 18:55:00 10.4 C 8.29 g/m*3 10.4 C 0 km/h
229 05-10-2019 19:00:00 10.3 C 8.24 g/m*3 10.3 C 0 km/h
230 05-10-2019 19:05:00 10.1 C 8.13 g/m*3 10.1 C 0 km/h
231 05-10-2019 19:10:00 9.9 C 8.03 g/m*3 9.9 C 0 km/h
232 05-10-2019 19:15:00 9.8 C 8.07 g/m*3 9.8 C 0 km/h
233 05-10-2019 19:20:00 9.7 C 8.02 g/m*3 9.7 C 0 km/h
234 05-10-2019 19:25:00 9.6 C 7.97 g/m*3 9.6 C 0 km/h
235 05-10-2019 19:30:00 9.4 C 7.87 g/m*3 9.4 C 0 km/h
236 05-10-2019 19:35:00 9.3 C 7.82 g/m*3 9.3 C 1.6 km/h
237 05-10-2019 19:40:00 9.2 C 7.68 g/m*3 9.2 C 1.6 km/h
238 05-10-2019 19:45:00 9.1 C 7.63 g/m*3 9.1 C 1.6 km/h
239 05-10-2019 19:50:00 8.9 C 7.53 g/m*3 8.9 C 0 km/h
240 05-10-2019 19:55:00 8.8 C 7.49 g/m*3 8.8 C 0 km/h
241 05-10-2019 20:00:00 8.7 C 7.52 g/m*3 8.7 C 0 km/h
242 05-10-2019 20:05:00 8.4 C 7.38 g/m*3 8.4 C 0 km/h
243 05-10-2019 20:10:00 8.3 C 7.33 g/m*3 8.3 C 3.2 km/h
244 05-10-2019 20:15:00 8.3 C 7.42 g/m*3 8.3 C 3.2 km/h
245 05-10-2019 20:20:00 8.3 C 7.42 g/m*3 8.3 C 3.2 km/h
246 05-10-2019 20:25:00 8.3 C 7.42 g/m*3 8.3 C 1.6 km/h
247 05-10-2019 20:30:00 8.3 C 7.42 g/m*3 8.3 C 1.6 km/h
248 05-10-2019 20:35:00 8.3 C 7.5 g/m*3 8.3 C 1.6 km/h
249 05-10-2019 20:40:00 8.3 C 7.5 g/m*3 8.3 C 1.6 km/h
250 05-10-2019 20:45:00 8.4 C 7.55 g/m*3 8.4 C 0 km/h
Sensor: Nr:Datum:Temp:Abs-Feuchte:Windchill:Wind:
Aussen-T/F 251 05-10-2019 20:50:00 8.4 C 7.55 g/m*3 8.4 C 0 km/h
252 05-10-2019 20:55:00 8.3 C 7.5 g/m*3 8.3 C 0 km/h
253 05-10-2019 21:00:00 8.3 C 7.5 g/m*3 8.3 C 0 km/h
254 05-10-2019 21:05:00 8.3 C 7.5 g/m*3 8.3 C 0 km/h
255 05-10-2019 21:10:00 8.2 C 7.54 g/m*3 8.2 C 0 km/h
256 05-10-2019 21:15:00 8.1 C 7.49 g/m*3 8.1 C 0 km/h
257 05-10-2019 21:20:00 8 C 7.52 g/m*3 8 C 0 km/h
258 05-10-2019 21:25:00 7.9 C 7.47 g/m*3 7.9 C 0 km/h
259 05-10-2019 21:30:00 7.8 C 7.43 g/m*3 7.8 C 0 km/h
260 05-10-2019 21:35:00 7.7 C 7.38 g/m*3 7.7 C 0 km/h
261 05-10-2019 21:40:00 7.6 C 7.33 g/m*3 7.6 C 0 km/h
262 05-10-2019 21:45:00 7.6 C 7.33 g/m*3 7.6 C 0 km/h
263 05-10-2019 21:50:00 7.5 C 7.36 g/m*3 7.5 C 0 km/h
264 05-10-2019 21:55:00 7.5 C 7.36 g/m*3 7.5 C 0 km/h
265 05-10-2019 22:00:00 7.4 C 7.32 g/m*3 7.4 C 0 km/h
266 05-10-2019 22:05:00 7.4 C 7.4 g/m*3 7.4 C 0 km/h
267 05-10-2019 22:10:00 7.5 C 7.44 g/m*3 7.5 C 0 km/h
268 05-10-2019 22:15:00 7.4 C 7.4 g/m*3 7.4 C 0 km/h
269 05-10-2019 22:20:00 7.4 C 7.4 g/m*3 7.4 C 0 km/h
270 05-10-2019 22:25:00 7.4 C 7.4 g/m*3 7.4 C 0 km/h
271 05-10-2019 22:30:00 7.4 C 7.4 g/m*3 7.4 C 0 km/h
272 05-10-2019 22:35:00 7.4 C 7.48 g/m*3 7.4 C 0 km/h
273 05-10-2019 22:40:00 7.5 C 7.52 g/m*3 7.5 C 0 km/h
274 05-10-2019 22:45:00 7.5 C 7.52 g/m*3 7.5 C 0 km/h
275 05-10-2019 22:50:00 7.5 C 7.52 g/m*3 7.5 C 0 km/h
Sensor: Nr:Datum:Temp:Abs-Feuchte:Windchill:Wind:
Aussen-T/F 276 05-10-2019 22:55:00 7.4 C 7.48 g/m*3 7.4 C 0 km/h
277 05-10-2019 23:00:00 7.4 C 7.48 g/m*3 7.4 C 0 km/h
278 05-10-2019 23:05:00 7.4 C 7.48 g/m*3 7.4 C 0 km/h
279 05-10-2019 23:10:00 7.3 C 7.43 g/m*3 7.3 C 0 km/h
280 05-10-2019 23:15:00 7.3 C 7.43 g/m*3 7.3 C 0 km/h
281 05-10-2019 23:20:00 7.3 C 7.43 g/m*3 7.3 C 0 km/h
282 05-10-2019 23:25:00 7.3 C 7.43 g/m*3 7.3 C 0 km/h
283 05-10-2019 23:30:00 7.3 C 7.43 g/m*3 7.3 C 0 km/h
284 05-10-2019 23:35:00 7.3 C 7.43 g/m*3 7.3 C 0 km/h
285 05-10-2019 23:40:00 7.4 C 7.48 g/m*3 7.4 C 0 km/h
286 05-10-2019 23:45:00 7.4 C 7.48 g/m*3 7.4 C 0 km/h
287 05-10-2019 23:50:00 7.4 C 7.48 g/m*3 7.4 C 0 km/h
288 05-10-2019 23:55:00 7.4 C 7.48 g/m*3 7.4 C 0 km/h
289 06-10-2019 00:00:00 7.4 C 7.55 g/m*3 7.4 C 0 km/h
290 06-10-2019 00:05:00 7.4 C 7.48 g/m*3 7.4 C 0 km/h
291 06-10-2019 00:10:00 7.4 C 7.48 g/m*3 7.4 C 0 km/h
292 06-10-2019 00:15:00 7.3 C 7.43 g/m*3 7.3 C 0 km/h
293 06-10-2019 00:20:00 7.3 C 7.43 g/m*3 7.3 C 0 km/h
294 06-10-2019 00:25:00 7.2 C 7.38 g/m*3 7.2 C 0 km/h
295 06-10-2019 00:30:00 7.1 C 7.33 g/m*3 7.1 C 0 km/h
296 06-10-2019 00:35:00 7 C 7.28 g/m*3 7 C 0 km/h
297 06-10-2019 00:40:00 6.9 C 7.24 g/m*3 6.9 C 0 km/h
298 06-10-2019 00:45:00 6.9 C 7.24 g/m*3 6.9 C 0 km/h
299 06-10-2019 00:50:00 6.9 C 7.24 g/m*3 6.9 C 0 km/h
300 06-10-2019 00:55:00 6.8 C 7.27 g/m*3 6.8 C 0 km/h
Sensor: Nr:Datum:Temp:Abs-Feuchte:Windchill:Wind:
Aussen-T/F 301 06-10-2019 01:00:00 6.8 C 7.27 g/m*3 6.8 C 0 km/h
302 06-10-2019 01:05:00 6.8 C 7.27 g/m*3 6.8 C 0 km/h
303 06-10-2019 01:10:00 6.8 C 7.19 g/m*3 6.8 C 0 km/h
304 06-10-2019 01:15:00 6.7 C 7.14 g/m*3 6.7 C 0 km/h
305 06-10-2019 01:20:00 6.6 C 7.1 g/m*3 6.6 C 0 km/h
306 06-10-2019 01:25:00 6.5 C 7.05 g/m*3 6.5 C 0 km/h
307 06-10-2019 01:30:00 6.4 C 7 g/m*3 6.4 C 0 km/h
308 06-10-2019 01:35:00 6.4 C 7 g/m*3 6.4 C 0 km/h
309 06-10-2019 01:40:00 6.4 C 7.08 g/m*3 6.4 C 0 km/h
310 06-10-2019 01:45:00 6.4 C 7.08 g/m*3 6.4 C 0 km/h
311 06-10-2019 01:50:00 6.4 C 7.08 g/m*3 6.4 C 0 km/h
312 06-10-2019 01:55:00 6.4 C 7.08 g/m*3 6.4 C 0 km/h
313 06-10-2019 02:00:00 6.5 C 7.12 g/m*3 6.5 C 0 km/h
314 06-10-2019 02:05:00 6.5 C 7.12 g/m*3 6.5 C 0 km/h
315 06-10-2019 02:10:00 6.6 C 7.17 g/m*3 6.6 C 0 km/h
316 06-10-2019 02:15:00 6.6 C 7.17 g/m*3 6.6 C 0 km/h
317 06-10-2019 02:20:00 6.6 C 7.17 g/m*3 6.6 C 0 km/h
318 06-10-2019 02:25:00 6.7 C 7.22 g/m*3 6.7 C 0 km/h
319 06-10-2019 02:30:00 6.7 C 7.29 g/m*3 6.7 C 0 km/h
320 06-10-2019 02:35:00 6.8 C 7.34 g/m*3 6.8 C 0 km/h
321 06-10-2019 02:40:00 6.8 C 7.34 g/m*3 6.8 C 0 km/h
322 06-10-2019 02:45:00 6.8 C 7.34 g/m*3 6.8 C 0 km/h
323 06-10-2019 02:50:00 6.9 C 7.39 g/m*3 6.9 C 0 km/h
324 06-10-2019 02:55:00 6.9 C 7.39 g/m*3 6.9 C 0 km/h
325 06-10-2019 03:00:00 6.9 C 7.39 g/m*3 6.9 C 0 km/h
Sensor: Nr:Datum:Temp:Abs-Feuchte:Windchill:Wind:
Aussen-T/F 326 06-10-2019 03:05:00 6.9 C 7.39 g/m*3 6.9 C 0 km/h
327 06-10-2019 03:10:00 7 C 7.44 g/m*3 7 C 0 km/h
328 06-10-2019 03:15:00 7 C 7.44 g/m*3 7 C 0 km/h
329 06-10-2019 03:20:00 7.1 C 7.49 g/m*3 7.1 C 0 km/h
330 06-10-2019 03:25:00 7.1 C 7.49 g/m*3 7.1 C 0 km/h
331 06-10-2019 03:30:00 7.1 C 7.49 g/m*3 7.1 C 0 km/h
332 06-10-2019 03:35:00 7.1 C 7.49 g/m*3 7.1 C 0 km/h
333 06-10-2019 03:40:00 7.1 C 7.49 g/m*3 7.1 C 0 km/h
334 06-10-2019 03:45:00 7.1 C 7.49 g/m*3 7.1 C 0 km/h
335 06-10-2019 03:50:00 7.1 C 7.49 g/m*3 7.1 C 0 km/h
336 06-10-2019 03:55:00 7.2 C 7.54 g/m*3 7.2 C 0 km/h
337 06-10-2019 04:00:00 7.2 C 7.54 g/m*3 7.2 C 0 km/h
338 06-10-2019 04:05:00 7.2 C 7.54 g/m*3 7.2 C 0 km/h
339 06-10-2019 04:10:00 7.2 C 7.54 g/m*3 7.2 C 0 km/h
340 06-10-2019 04:15:00 7.2 C 7.54 g/m*3 7.2 C 0 km/h
341 06-10-2019 04:20:00 7.2 C 7.54 g/m*3 7.2 C 0 km/h
342 06-10-2019 04:25:00 7.2 C 7.54 g/m*3 7.2 C 0 km/h
343 06-10-2019 04:30:00 7.2 C 7.54 g/m*3 7.2 C 0 km/h
344 06-10-2019 04:35:00 7.2 C 7.54 g/m*3 7.2 C 0 km/h
345 06-10-2019 04:40:00 7.2 C 7.54 g/m*3 7.2 C 0 km/h
346 06-10-2019 04:45:00 7.2 C 7.54 g/m*3 7.2 C 0 km/h
347 06-10-2019 04:50:00 7.2 C 7.54 g/m*3 7.2 C 0 km/h
348 06-10-2019 04:55:00 7.2 C 7.54 g/m*3 7.2 C 0 km/h
349 06-10-2019 05:00:00 7.1 C 7.49 g/m*3 7.1 C 0 km/h
350 06-10-2019 05:05:00 7.1 C 7.49 g/m*3 7.1 C 0 km/h
Sensor: Nr:Datum:Temp:Abs-Feuchte:Windchill:Wind:
Aussen-T/F 351 06-10-2019 05:10:00 7.1 C 7.49 g/m*3 7.1 C 0 km/h
352 06-10-2019 05:15:00 7.2 C 7.54 g/m*3 7.2 C 0 km/h
353 06-10-2019 05:20:00 7.2 C 7.54 g/m*3 7.2 C 0 km/h
354 06-10-2019 05:25:00 7.2 C 7.54 g/m*3 7.2 C 0 km/h
355 06-10-2019 05:30:00 7.2 C 7.54 g/m*3 7.2 C 0 km/h
356 06-10-2019 05:35:00 7.2 C 7.54 g/m*3 7.2 C 0 km/h
357 06-10-2019 05:40:00 7.2 C 7.54 g/m*3 7.2 C 0 km/h
358 06-10-2019 05:45:00 7.2 C 7.54 g/m*3 7.2 C 0 km/h
359 06-10-2019 05:50:00 7.3 C 7.58 g/m*3 7.3 C 0 km/h
360 06-10-2019 05:55:00 7.2 C 7.54 g/m*3 7.2 C 0 km/h
361 06-10-2019 06:00:00 7.3 C 7.58 g/m*3 7.3 C 0 km/h
362 06-10-2019 06:05:00 7.3 C 7.58 g/m*3 7.3 C 0 km/h
363 06-10-2019 06:10:00 7.3 C 7.58 g/m*3 7.3 C 0 km/h
364 06-10-2019 06:15:00 7.3 C 7.58 g/m*3 7.3 C 0 km/h
365 06-10-2019 06:20:00 7.3 C 7.58 g/m*3 7.3 C 0 km/h
366 06-10-2019 06:25:00 7.4 C 7.63 g/m*3 7.4 C 0 km/h
367 06-10-2019 06:30:00 7.4 C 7.63 g/m*3 7.4 C 0 km/h
368 06-10-2019 06:35:00 7.4 C 7.63 g/m*3 7.4 C 0 km/h
369 06-10-2019 06:40:00 7.4 C 7.63 g/m*3 7.4 C 0 km/h
370 06-10-2019 06:45:00 7.5 C 7.68 g/m*3 7.5 C 0 km/h
371 06-10-2019 06:50:00 7.5 C 7.68 g/m*3 7.5 C 0 km/h
372 06-10-2019 06:55:00 7.5 C 7.68 g/m*3 7.5 C 0 km/h
373 06-10-2019 07:00:00 7.6 C 7.73 g/m*3 7.6 C 0 km/h
374 06-10-2019 07:05:00 7.6 C 7.73 g/m*3 7.6 C 0 km/h
375 06-10-2019 07:10:00 7.6 C 7.73 g/m*3 7.6 C 0 km/h
Sensor: Nr:Datum:Temp:Abs-Feuchte:Windchill:Wind:
Aussen-T/F 376 06-10-2019 07:15:00 7.6 C 7.73 g/m*3 7.6 C 0 km/h
377 06-10-2019 07:20:00 7.7 C 7.78 g/m*3 7.7 C 0 km/h
378 06-10-2019 07:25:00 7.6 C 7.73 g/m*3 7.6 C 0 km/h
379 06-10-2019 07:30:00 7.7 C 7.78 g/m*3 7.7 C 0 km/h
380 06-10-2019 07:35:00 7.7 C 7.78 g/m*3 7.7 C 0 km/h
381 06-10-2019 07:40:00 7.7 C 7.78 g/m*3 7.7 C 0 km/h
382 06-10-2019 07:45:00 7.7 C 7.78 g/m*3 7.7 C 0 km/h
383 06-10-2019 07:50:00 7.7 C 7.78 g/m*3 7.7 C 0 km/h
384 06-10-2019 07:55:00 7.7 C 7.78 g/m*3 7.7 C 0 km/h
385 06-10-2019 08:00:00 7.7 C 7.78 g/m*3 7.7 C 0 km/h
386 06-10-2019 08:05:00 7.8 C 7.83 g/m*3 7.8 C 0 km/h
387 06-10-2019 08:10:00 7.8 C 7.83 g/m*3 7.8 C 0 km/h
388 06-10-2019 08:15:00 7.8 C 7.83 g/m*3 7.8 C 0 km/h
389 06-10-2019 08:20:00 7.8 C 7.83 g/m*3 7.8 C 0 km/h
390 06-10-2019 08:25:00 7.8 C 7.83 g/m*3 7.8 C 0 km/h
391 06-10-2019 08:30:00 7.8 C 7.83 g/m*3 7.8 C 0 km/h
392 06-10-2019 08:35:00 7.9 C 7.89 g/m*3 7.9 C 0 km/h
393 06-10-2019 08:40:00 7.9 C 7.89 g/m*3 7.9 C 0 km/h
394 06-10-2019 08:45:00 7.9 C 7.89 g/m*3 7.9 C 0 km/h
395 06-10-2019 08:50:00 7.9 C 7.89 g/m*3 7.9 C 0 km/h
396 06-10-2019 08:55:00 8 C 7.94 g/m*3 8 C 0 km/h
397 06-10-2019 09:00:00 8.1 C 7.99 g/m*3 8.1 C 0 km/h
398 06-10-2019 09:05:00 8.1 C 7.99 g/m*3 8.1 C 0 km/h
399 06-10-2019 09:10:00 8.1 C 7.99 g/m*3 8.1 C 0 km/h
400 06-10-2019 09:15:00 8.1 C 7.99 g/m*3 8.1 C 0 km/h
Sensor: Nr:Datum:Temp:Abs-Feuchte:Windchill:Wind:
Aussen-T/F 401 06-10-2019 09:20:00 8.2 C 8.04 g/m*3 8.2 C 0 km/h
402 06-10-2019 09:25:00 8.2 C 8.04 g/m*3 8.2 C 0 km/h
403 06-10-2019 09:30:00 8.3 C 8.09 g/m*3 8.3 C 0 km/h
404 06-10-2019 09:35:00 8.4 C 8.14 g/m*3 8.4 C 0 km/h
405 06-10-2019 09:40:00 8.4 C 8.14 g/m*3 8.4 C 0 km/h
406 06-10-2019 09:45:00 8.6 C 8.25 g/m*3 8.6 C 0 km/h
407 06-10-2019 09:50:00 8.6 C 8.25 g/m*3 8.6 C 0 km/h
408 06-10-2019 09:55:00 8.7 C 8.3 g/m*3 8.7 C 0 km/h
409 06-10-2019 10:00:00 8.7 C 8.3 g/m*3 8.7 C 0 km/h
410 06-10-2019 10:05:00 8.7 C 8.3 g/m*3 8.7 C 0 km/h
411 06-10-2019 10:10:00 8.7 C 8.3 g/m*3 8.7 C 0 km/h
412 06-10-2019 10:15:00 8.7 C 8.3 g/m*3 8.7 C 0 km/h
413 06-10-2019 10:20:00 8.7 C 8.3 g/m*3 8.7 C 0 km/h
414 06-10-2019 10:25:00 8.7 C 8.3 g/m*3 8.7 C 1.6 km/h
415 06-10-2019 10:30:00 8.6 C 8.16 g/m*3 8.6 C 3.2 km/h
416 06-10-2019 10:35:00 8.6 C 8.16 g/m*3 8.6 C 1.6 km/h
417 06-10-2019 10:40:00 8.6 C 8.16 g/m*3 8.6 C 0 km/h
418 06-10-2019 10:45:00 8.6 C 8.16 g/m*3 8.6 C 1.6 km/h
419 06-10-2019 10:50:00 8.5 C 8.11 g/m*3 8.5 C 1.6 km/h
420 06-10-2019 10:55:00 8.5 C 8.11 g/m*3 8.5 C 0 km/h
421 06-10-2019 11:00:00 8.5 C 8.11 g/m*3 8.5 C 4.8 km/h
422 06-10-2019 11:05:00 8.5 C 8.11 g/m*3 7.64 C 6.4 km/h
423 06-10-2019 11:10:00 8.5 C 8.2 g/m*3 8.5 C 3.2 km/h
424 06-10-2019 11:15:00 8.6 C 8.25 g/m*3 8.6 C 4.8 km/h
425 06-10-2019 11:20:00 8.5 C 8.2 g/m*3 8.5 C 4.8 km/h
Sensor: Nr:Datum:Temp:Abs-Feuchte:Windchill:Wind:
Aussen-T/F 426 06-10-2019 11:25:00 8.5 C 8.2 g/m*3 8.5 C 4.8 km/h
427 06-10-2019 11:30:00 8.5 C 8.2 g/m*3 8.5 C 0 km/h
428 06-10-2019 11:35:00 8.6 C 8.25 g/m*3 7.75 C 6.4 km/h
429 06-10-2019 11:40:00 8.6 C 8.25 g/m*3 8.6 C 0 km/h
430 06-10-2019 11:45:00 8.6 C 8.25 g/m*3 8.6 C 3.2 km/h
431 06-10-2019 11:50:00 8.6 C 8.25 g/m*3 8.6 C 1.6 km/h
432 06-10-2019 11:55:00 8.7 C 8.3 g/m*3 8.7 C 3.2 km/h
433 06-10-2019 12:00:00 8.7 C 8.3 g/m*3 8.7 C 1.6 km/h
434 06-10-2019 12:05:00 8.7 C 8.3 g/m*3 8.7 C 0 km/h
435 06-10-2019 12:10:00 8.8 C 8.36 g/m*3 8.8 C 0 km/h
436 06-10-2019 12:15:00 8.8 C 8.36 g/m*3 8.8 C 1.6 km/h
437 06-10-2019 12:20:00 8.8 C 8.36 g/m*3 8.8 C 0 km/h
438 06-10-2019 12:25:00 8.8 C 8.36 g/m*3 8.8 C 0 km/h
439 06-10-2019 12:30:00 8.8 C 8.36 g/m*3 8.8 C 0 km/h
440 06-10-2019 12:35:00 8.8 C 8.36 g/m*3 8.8 C 0 km/h
441 06-10-2019 12:40:00 8.8 C 8.36 g/m*3 8.8 C 0 km/h
442 06-10-2019 12:45:00 8.8 C 8.36 g/m*3 8.8 C 0 km/h
443 06-10-2019 12:50:00 8.8 C 8.36 g/m*3 8.8 C 0 km/h
444 06-10-2019 12:55:00 8.8 C 8.36 g/m*3 8.8 C 0 km/h
445 06-10-2019 13:00:00 8.9 C 8.41 g/m*3 8.9 C 0 km/h
446 06-10-2019 13:05:00 9 C 8.46 g/m*3 9 C 0 km/h
447 06-10-2019 13:10:00 9 C 8.46 g/m*3 9 C 0 km/h
448 06-10-2019 13:15:00 9 C 8.46 g/m*3 9 C 0 km/h
449 06-10-2019 13:20:00 9.1 C 8.52 g/m*3 9.1 C 0 km/h
450 06-10-2019 13:25:00 9.1 C 8.52 g/m*3 9.1 C 0 km/h
Sensor: Nr:Datum:Temp:Abs-Feuchte:Windchill:Wind:
Aussen-T/F 451 06-10-2019 13:30:00 9.1 C 8.52 g/m*3 9.1 C 4.8 km/h
452 06-10-2019 13:35:00 9 C 8.46 g/m*3 9 C 0 km/h
453 06-10-2019 13:40:00 9.1 C 8.52 g/m*3 9.1 C 0 km/h
454 06-10-2019 13:45:00 9.1 C 8.52 g/m*3 9.1 C 1.6 km/h
455 06-10-2019 13:50:00 9.2 C 8.57 g/m*3 9.2 C 1.6 km/h
456 06-10-2019 13:55:00 9.2 C 8.57 g/m*3 9.2 C 0 km/h
457 06-10-2019 14:00:00 9.2 C 8.57 g/m*3 9.2 C 1.6 km/h
458 06-10-2019 14:05:00 9.2 C 8.57 g/m*3 9.2 C 1.6 km/h
459 06-10-2019 14:10:00 9.2 C 8.57 g/m*3 9.2 C 0 km/h
460 06-10-2019 14:15:00 9.2 C 8.57 g/m*3 9.2 C 1.6 km/h
461 06-10-2019 14:20:00 9.2 C 8.57 g/m*3 9.2 C 3.2 km/h
462 06-10-2019 14:25:00 9.2 C 8.57 g/m*3 9.2 C 3.2 km/h
463 06-10-2019 14:30:00 9.2 C 8.57 g/m*3 9.2 C 0 km/h
464 06-10-2019 14:35:00 9.3 C 8.63 g/m*3 9.3 C 1.6 km/h
465 06-10-2019 14:40:00 9.3 C 8.63 g/m*3 9.3 C 0 km/h
466 06-10-2019 14:45:00 9.3 C 8.63 g/m*3 9.3 C 0 km/h
467 06-10-2019 14:50:00 9.3 C 8.63 g/m*3 9.3 C 0 km/h
468 06-10-2019 14:55:00 9.4 C 8.68 g/m*3 9.4 C 0 km/h
469 06-10-2019 15:00:00 9.3 C 8.63 g/m*3 9.3 C 4.8 km/h
470 06-10-2019 15:05:00 9.3 C 8.63 g/m*3 9.3 C 0 km/h
471 06-10-2019 15:10:00 9.3 C 8.63 g/m*3 9.3 C 0 km/h
472 06-10-2019 15:15:00 9.4 C 8.68 g/m*3 9.4 C 0 km/h
473 06-10-2019 15:20:00 9.4 C 8.68 g/m*3 9.4 C 0 km/h
474 06-10-2019 15:25:00 9.4 C 8.68 g/m*3 9.4 C 0 km/h
475 06-10-2019 15:30:00 9.5 C 8.74 g/m*3 9.5 C 1.6 km/h
Sensor: Nr:Datum:Temp:Abs-Feuchte:Windchill:Wind:
Aussen-T/F 476 06-10-2019 15:35:00 9.5 C 8.74 g/m*3 9.5 C 0 km/h
477 06-10-2019 15:40:00 9.6 C 8.79 g/m*3 9.6 C 0 km/h
478 06-10-2019 15:45:00 9.6 C 8.79 g/m*3 9.6 C 0 km/h
479 06-10-2019 15:50:00 9.6 C 8.79 g/m*3 9.6 C 0 km/h
480 06-10-2019 15:55:00 9.6 C 8.79 g/m*3 9.6 C 0 km/h
481 06-10-2019 16:00:00 9.6 C 8.79 g/m*3 9.6 C 0 km/h
482 06-10-2019 16:05:00 9.6 C 8.79 g/m*3 9.6 C 0 km/h
483 06-10-2019 16:10:00 9.6 C 8.79 g/m*3 9.6 C 0 km/h
484 06-10-2019 16:15:00 9.7 C 8.85 g/m*3 9.7 C 0 km/h
485 06-10-2019 16:20:00 9.7 C 8.85 g/m*3 9.7 C 4.8 km/h
486 06-10-2019 16:25:00 9.6 C 8.79 g/m*3 9.6 C 4.8 km/h
487 06-10-2019 16:30:00 9.6 C 8.79 g/m*3 9.6 C 3.2 km/h
488 06-10-2019 16:35:00 9.6 C 8.79 g/m*3 9.6 C 3.2 km/h
489 06-10-2019 16:40:00 9.6 C 8.79 g/m*3 9.6 C 1.6 km/h
490 06-10-2019 16:45:00 9.6 C 8.79 g/m*3 9.6 C 3.2 km/h
491 06-10-2019 16:50:00 9.6 C 8.79 g/m*3 9.6 C 0 km/h
492 06-10-2019 16:55:00 9.6 C 8.79 g/m*3 9.6 C 1.6 km/h
493 06-10-2019 17:00:00 9.6 C 8.79 g/m*3 9.6 C 0 km/h
494 06-10-2019 17:05:00 9.5 C 8.74 g/m*3 9.5 C 0 km/h
495 06-10-2019 17:10:00 9.5 C 8.74 g/m*3 9.5 C 0 km/h
496 06-10-2019 17:15:00 9.6 C 8.79 g/m*3 9.6 C 0 km/h
497 06-10-2019 17:20:00 9.6 C 8.79 g/m*3 9.6 C 0 km/h
498 06-10-2019 17:25:00 9.5 C 8.74 g/m*3 9.5 C 0 km/h
499 06-10-2019 17:30:00 9.5 C 8.74 g/m*3 9.5 C 1.6 km/h
500 06-10-2019 17:35:00 9.5 C 8.74 g/m*3 9.5 C 3.2 km/h
Sensor: Nr:Datum:Temp:Abs-Feuchte:Windchill:Wind:
Aussen-T/F 501 06-10-2019 17:40:00 9.5 C 8.74 g/m*3 9.5 C 1.6 km/h
502 06-10-2019 17:45:00 9.5 C 8.74 g/m*3 9.5 C 0 km/h
503 06-10-2019 17:50:00 9.5 C 8.74 g/m*3 9.5 C 0 km/h
504 06-10-2019 17:55:00 9.4 C 8.68 g/m*3 9.4 C 0 km/h
505 06-10-2019 18:00:00 9.4 C 8.68 g/m*3 9.4 C 3.2 km/h
506 06-10-2019 18:05:00 9.4 C 8.68 g/m*3 9.4 C 1.6 km/h
507 06-10-2019 18:10:00 9.4 C 8.68 g/m*3 9.4 C 0 km/h
508 06-10-2019 18:15:00 9.4 C 8.68 g/m*3 9.4 C 0 km/h
509 06-10-2019 18:20:00 9.4 C 8.68 g/m*3 9.4 C 1.6 km/h
510 06-10-2019 18:25:00 9.3 C 8.63 g/m*3 9.3 C 3.2 km/h
511 06-10-2019 18:30:00 9.3 C 8.63 g/m*3 9.3 C 1.6 km/h
512 06-10-2019 18:35:00 9.3 C 8.63 g/m*3 9.3 C 3.2 km/h
513 06-10-2019 18:40:00 9.3 C 8.63 g/m*3 8.16 C 8.1 km/h
514 06-10-2019 18:45:00 9.3 C 8.63 g/m*3 8.16 C 8.1 km/h
515 06-10-2019 18:50:00 9.2 C 8.57 g/m*3 8.05 C 8.1 km/h
516 06-10-2019 18:55:00 9.2 C 8.57 g/m*3 9.2 C 0 km/h
517 06-10-2019 19:00:00 9.2 C 8.57 g/m*3 9.2 C 3.2 km/h
518 06-10-2019 19:05:00 9.2 C 8.57 g/m*3 8.45 C 6.4 km/h
519 06-10-2019 19:10:00 9.2 C 8.57 g/m*3 8.45 C 6.4 km/h
520 06-10-2019 19:15:00 9.2 C 8.57 g/m*3 8.05 C 8.1 km/h
521 06-10-2019 19:20:00 9.2 C 8.57 g/m*3 9.2 C 4.8 km/h
522 06-10-2019 19:25:00 9.2 C 8.57 g/m*3 9.2 C 3.2 km/h
523 06-10-2019 19:30:00 9.1 C 8.52 g/m*3 9.1 C 4.8 km/h
524 06-10-2019 19:35:00 9.1 C 8.52 g/m*3 9.1 C 4.8 km/h
525 06-10-2019 19:40:00 9.1 C 8.52 g/m*3 9.1 C 1.6 km/h
Sensor: Nr:Datum:Temp:Abs-Feuchte:Windchill:Wind:
Aussen-T/F 526 06-10-2019 19:45:00 9.1 C 8.61 g/m*3 9.1 C 0 km/h
527 06-10-2019 19:50:00 9.1 C 8.61 g/m*3 9.1 C 0 km/h
528 06-10-2019 19:55:00 9.1 C 8.61 g/m*3 9.1 C 0 km/h
529 06-10-2019 20:00:00 9.1 C 8.61 g/m*3 9.1 C 1.6 km/h
530 06-10-2019 20:05:00 9.1 C 8.61 g/m*3 9.1 C 1.6 km/h
531 06-10-2019 20:10:00 9.1 C 8.61 g/m*3 9.1 C 0 km/h
532 06-10-2019 20:15:00 9.1 C 8.61 g/m*3 9.1 C 0 km/h
533 06-10-2019 20:20:00 9.1 C 8.61 g/m*3 9.1 C 0 km/h
534 06-10-2019 20:25:00 9.1 C 8.61 g/m*3 9.1 C 0 km/h
535 06-10-2019 20:30:00 9.1 C 8.61 g/m*3 9.1 C 0 km/h
536 06-10-2019 20:35:00 9.1 C 8.61 g/m*3 9.1 C 0 km/h
537 06-10-2019 20:40:00 9.1 C 8.61 g/m*3 9.1 C 0 km/h
538 06-10-2019 20:45:00 9.1 C 8.61 g/m*3 9.1 C 1.6 km/h
539 06-10-2019 20:50:00 9.1 C 8.61 g/m*3 9.1 C 0 km/h
540 06-10-2019 20:55:00 9.1 C 8.61 g/m*3 9.1 C 0 km/h
541 06-10-2019 21:00:00 9 C 8.55 g/m*3 9 C 1.6 km/h
542 06-10-2019 21:05:00 9 C 8.55 g/m*3 9 C 0 km/h
543 06-10-2019 21:10:00 9.1 C 8.61 g/m*3 9.1 C 0 km/h
544 06-10-2019 21:15:00 9.1 C 8.61 g/m*3 9.1 C 0 km/h
545 06-10-2019 21:20:00 9.1 C 8.61 g/m*3 9.1 C 0 km/h
546 06-10-2019 21:25:00 9.1 C 8.61 g/m*3 9.1 C 0 km/h
547 06-10-2019 21:30:00 9.1 C 8.61 g/m*3 9.1 C 0 km/h
548 06-10-2019 21:35:00 9.1 C 8.61 g/m*3 9.1 C 3.2 km/h
549 06-10-2019 21:40:00 9.1 C 8.61 g/m*3 9.1 C 4.8 km/h
550 06-10-2019 21:45:00 9 C 8.55 g/m*3 9 C 1.6 km/h
Sensor: Nr:Datum:Temp:Abs-Feuchte:Windchill:Wind:
Aussen-T/F 551 06-10-2019 21:50:00 8.9 C 8.5 g/m*3 8.9 C 0 km/h
552 06-10-2019 21:55:00 8.9 C 8.5 g/m*3 7.37 C 9.7 km/h
553 06-10-2019 22:00:00 8.9 C 8.5 g/m*3 6.85 C 12.9 km/h
554 06-10-2019 22:05:00 8.9 C 8.5 g/m*3 8.9 C 1.6 km/h
555 06-10-2019 22:10:00 8.8 C 8.44 g/m*3 8.8 C 3.2 km/h
556 06-10-2019 22:15:00 8.8 C 8.44 g/m*3 8.8 C 1.6 km/h
557 06-10-2019 22:20:00 8.8 C 8.44 g/m*3 8.8 C 3.2 km/h
558 06-10-2019 22:25:00 8.8 C 8.44 g/m*3 8.8 C 0 km/h
559 06-10-2019 22:30:00 8.8 C 8.44 g/m*3 8.8 C 0 km/h
560 06-10-2019 22:35:00 8.8 C 8.44 g/m*3 8.8 C 0 km/h
561 06-10-2019 22:40:00 8.8 C 8.44 g/m*3 8.8 C 0 km/h
562 06-10-2019 22:45:00 8.8 C 8.44 g/m*3 8.8 C 0 km/h
563 06-10-2019 22:50:00 8.8 C 8.44 g/m*3 8.8 C 0 km/h
564 06-10-2019 22:55:00 8.8 C 8.44 g/m*3 8.8 C 0 km/h
565 06-10-2019 23:00:00 8.8 C 8.44 g/m*3 8.8 C 0 km/h
566 06-10-2019 23:05:00 8.8 C 8.44 g/m*3 8.8 C 0 km/h
567 06-10-2019 23:10:00 8.8 C 8.44 g/m*3 8.8 C 0 km/h
568 06-10-2019 23:15:00 8.8 C 8.44 g/m*3 8.8 C 0 km/h
569 06-10-2019 23:20:00 8.8 C 8.44 g/m*3 8.8 C 0 km/h
570 06-10-2019 23:25:00 8.8 C 8.44 g/m*3 8.8 C 0 km/h
571 06-10-2019 23:30:00 8.8 C 8.44 g/m*3 8.8 C 0 km/h
572 06-10-2019 23:35:00 8.8 C 8.44 g/m*3 8.8 C 0 km/h
573 06-10-2019 23:40:00 8.9 C 8.5 g/m*3 8.9 C 0 km/h
574 06-10-2019 23:45:00 8.9 C 8.5 g/m*3 8.9 C 0 km/h
575 06-10-2019 23:50:00 8.9 C 8.5 g/m*3 8.9 C 0 km/h
Sensor: Nr:Datum:Temp:Abs-Feuchte:Windchill:Wind:
Aussen-T/F 576 06-10-2019 23:55:00 8.9 C 8.5 g/m*3 8.9 C 0 km/h
577 07-10-2019 00:00:00 8.9 C 8.5 g/m*3 8.9 C 0 km/h
578 07-10-2019 00:05:00 8.9 C 8.5 g/m*3 8.9 C 0 km/h
579 07-10-2019 00:10:00 8.9 C 8.5 g/m*3 8.9 C 0 km/h
580 07-10-2019 00:15:00 8.9 C 8.5 g/m*3 8.9 C 0 km/h
581 07-10-2019 00:20:00 8.9 C 8.5 g/m*3 8.9 C 0 km/h
582 07-10-2019 00:25:00 8.9 C 8.5 g/m*3 8.9 C 0 km/h
583 07-10-2019 00:30:00 8.9 C 8.5 g/m*3 8.9 C 0 km/h
584 07-10-2019 00:35:00 8.9 C 8.5 g/m*3 8.9 C 0 km/h
585 07-10-2019 00:40:00 8.9 C 8.5 g/m*3 8.9 C 0 km/h
586 07-10-2019 00:45:00 8.9 C 8.5 g/m*3 8.9 C 0 km/h
587 07-10-2019 00:50:00 8.9 C 8.5 g/m*3 8.9 C 1.6 km/h
588 07-10-2019 00:55:00 8.9 C 8.5 g/m*3 8.9 C 1.6 km/h
589 07-10-2019 01:00:00 8.9 C 8.5 g/m*3 8.9 C 3.2 km/h
590 07-10-2019 01:05:00 8.8 C 8.44 g/m*3 8.8 C 0 km/h
591 07-10-2019 01:10:00 8.8 C 8.44 g/m*3 8.8 C 0 km/h
592 07-10-2019 01:15:00 8.7 C 8.39 g/m*3 8.7 C 4.8 km/h
593 07-10-2019 01:20:00 8.7 C 8.39 g/m*3 8.7 C 3.2 km/h
594 07-10-2019 01:25:00 8.7 C 8.39 g/m*3 7.13 C 9.7 km/h
595 07-10-2019 01:30:00 8.7 C 8.39 g/m*3 7.46 C 8.1 km/h
596 07-10-2019 01:35:00 8.6 C 8.34 g/m*3 8.6 C 4.8 km/h
597 07-10-2019 01:40:00 8.7 C 8.39 g/m*3 8.7 C 0 km/h
598 07-10-2019 01:45:00 8.7 C 8.39 g/m*3 8.7 C 1.6 km/h
599 07-10-2019 01:50:00 8.7 C 8.39 g/m*3 8.7 C 0 km/h
600 07-10-2019 01:55:00 8.7 C 8.39 g/m*3 8.7 C 0 km/h
Sensor: Nr:Datum:Temp:Abs-Feuchte:Windchill:Wind:
Aussen-T/F 601 07-10-2019 02:00:00 8.7 C 8.39 g/m*3 8.7 C 0 km/h
602 07-10-2019 02:05:00 8.7 C 8.39 g/m*3 8.7 C 0 km/h
603 07-10-2019 02:10:00 8.7 C 8.39 g/m*3 8.7 C 0 km/h
604 07-10-2019 02:15:00 8.7 C 8.39 g/m*3 8.7 C 0 km/h
605 07-10-2019 02:20:00 8.7 C 8.39 g/m*3 8.7 C 0 km/h
606 07-10-2019 02:25:00 8.7 C 8.39 g/m*3 8.7 C 0 km/h
607 07-10-2019 02:30:00 8.7 C 8.39 g/m*3 8.7 C 0 km/h
608 07-10-2019 02:35:00 8.7 C 8.39 g/m*3 8.7 C 0 km/h
609 07-10-2019 02:40:00 8.7 C 8.39 g/m*3 8.7 C 0 km/h
610 07-10-2019 02:45:00 8.7 C 8.39 g/m*3 8.7 C 0 km/h
611 07-10-2019 02:50:00 8.7 C 8.39 g/m*3 8.7 C 0 km/h
612 07-10-2019 02:55:00 8.6 C 8.34 g/m*3 8.6 C 1.6 km/h
613 07-10-2019 03:00:00 8.6 C 8.34 g/m*3 7.75 C 6.4 km/h
614 07-10-2019 03:05:00 8.6 C 8.34 g/m*3 8.6 C 0 km/h
615 07-10-2019 03:10:00 8.6 C 8.34 g/m*3 7.75 C 6.4 km/h
616 07-10-2019 03:15:00 8.6 C 8.34 g/m*3 8.6 C 1.6 km/h
617 07-10-2019 03:20:00 8.6 C 8.34 g/m*3 8.6 C 0 km/h
618 07-10-2019 03:25:00 8.6 C 8.34 g/m*3 8.6 C 0 km/h
619 07-10-2019 03:30:00 8.6 C 8.34 g/m*3 8.6 C 0 km/h
620 07-10-2019 03:35:00 8.6 C 8.34 g/m*3 8.6 C 0 km/h
621 07-10-2019 03:40:00 8.6 C 8.34 g/m*3 8.6 C 0 km/h
622 07-10-2019 03:45:00 8.6 C 8.34 g/m*3 8.6 C 1.6 km/h
623 07-10-2019 03:50:00 8.6 C 8.34 g/m*3 8.6 C 0 km/h
624 07-10-2019 03:55:00 8.7 C 8.39 g/m*3 8.7 C 0 km/h
625 07-10-2019 04:00:00 8.7 C 8.39 g/m*3 8.7 C 0 km/h
Sensor: Nr:Datum:Temp:Abs-Feuchte:Windchill:Wind:
Aussen-T/F 626 07-10-2019 04:05:00 8.7 C 8.39 g/m*3 8.7 C 0 km/h
627 07-10-2019 04:10:00 8.7 C 8.39 g/m*3 8.7 C 0 km/h
628 07-10-2019 04:15:00 8.7 C 8.39 g/m*3 8.7 C 0 km/h
629 07-10-2019 04:20:00 8.7 C 8.39 g/m*3 8.7 C 0 km/h
630 07-10-2019 04:25:00 8.7 C 8.39 g/m*3 8.7 C 0 km/h
631 07-10-2019 04:30:00 8.7 C 8.39 g/m*3 8.7 C 0 km/h
632 07-10-2019 04:35:00 8.7 C 8.39 g/m*3 8.7 C 0 km/h
633 07-10-2019 04:40:00 8.7 C 8.39 g/m*3 8.7 C 0 km/h
634 07-10-2019 04:45:00 8.7 C 8.39 g/m*3 8.7 C 0 km/h
635 07-10-2019 04:50:00 8.7 C 8.39 g/m*3 8.7 C 0 km/h
636 07-10-2019 04:55:00 8.7 C 8.39 g/m*3 8.7 C 0 km/h
637 07-10-2019 05:00:00 8.7 C 8.39 g/m*3 8.7 C 0 km/h
638 07-10-2019 05:05:00 8.7 C 8.39 g/m*3 8.7 C 0 km/h
639 07-10-2019 05:10:00 8.7 C 8.39 g/m*3 8.7 C 0 km/h
640 07-10-2019 05:15:00 8.7 C 8.39 g/m*3 8.7 C 1.6 km/h
641 07-10-2019 05:20:00 8.7 C 8.39 g/m*3 8.7 C 4.8 km/h
642 07-10-2019 05:25:00 8.6 C 8.34 g/m*3 8.6 C 4.8 km/h
643 07-10-2019 05:30:00 8.6 C 8.34 g/m*3 8.6 C 1.6 km/h
644 07-10-2019 05:35:00 8.6 C 8.34 g/m*3 8.6 C 1.6 km/h
645 07-10-2019 05:40:00 8.6 C 8.34 g/m*3 8.6 C 1.6 km/h
646 07-10-2019 05:45:00 8.6 C 8.34 g/m*3 8.6 C 3.2 km/h
647 07-10-2019 05:50:00 8.6 C 8.34 g/m*3 8.6 C 3.2 km/h
648 07-10-2019 05:55:00 8.6 C 8.34 g/m*3 8.6 C 0 km/h
649 07-10-2019 06:00:00 8.6 C 8.34 g/m*3 8.6 C 1.6 km/h
650 07-10-2019 06:05:00 8.6 C 8.34 g/m*3 8.6 C 0 km/h
Sensor: Nr:Datum:Temp:Abs-Feuchte:Windchill:Wind:
Aussen-T/F 651 07-10-2019 06:10:00 8.6 C 8.34 g/m*3 8.6 C 0 km/h
652 07-10-2019 06:15:00 8.6 C 8.34 g/m*3 8.6 C 0 km/h
653 07-10-2019 06:20:00 8.6 C 8.34 g/m*3 8.6 C 0 km/h
654 07-10-2019 06:25:00 8.6 C 8.34 g/m*3 8.6 C 0 km/h
655 07-10-2019 06:30:00 8.6 C 8.34 g/m*3 8.6 C 0 km/h
656 07-10-2019 06:35:00 8.6 C 8.34 g/m*3 8.6 C 0 km/h
657 07-10-2019 06:40:00 8.6 C 8.34 g/m*3 8.6 C 0 km/h
658 07-10-2019 06:45:00 8.6 C 8.34 g/m*3 8.6 C 0 km/h
659 07-10-2019 06:50:00 8.6 C 8.34 g/m*3 8.6 C 0 km/h
660 07-10-2019 06:55:00 8.6 C 8.34 g/m*3 8.6 C 0 km/h
661 07-10-2019 07:00:00 8.6 C 8.34 g/m*3 8.6 C 0 km/h
662 07-10-2019 07:05:00 8.6 C 8.34 g/m*3 8.6 C 0 km/h
663 07-10-2019 07:10:00 8.6 C 8.34 g/m*3 8.6 C 0 km/h
664 07-10-2019 07:15:00 8.6 C 8.34 g/m*3 8.6 C 0 km/h
665 07-10-2019 07:20:00 8.6 C 8.34 g/m*3 8.6 C 0 km/h
666 07-10-2019 07:25:00 8.6 C 8.34 g/m*3 8.6 C 0 km/h
667 07-10-2019 07:30:00 8.6 C 8.34 g/m*3 8.6 C 0 km/h
668 07-10-2019 07:35:00 8.6 C 8.34 g/m*3 8.6 C 0 km/h
669 07-10-2019 07:40:00 8.6 C 8.34 g/m*3 8.6 C 0 km/h
670 07-10-2019 07:45:00 8.6 C 8.34 g/m*3 8.6 C 0 km/h
671 07-10-2019 07:50:00 8.6 C 8.34 g/m*3 8.6 C 0 km/h
672 07-10-2019 07:55:00 8.6 C 8.34 g/m*3 8.6 C 0 km/h
673 07-10-2019 08:00:00 8.6 C 8.34 g/m*3 8.6 C 0 km/h
674 07-10-2019 08:05:00 8.6 C 8.34 g/m*3 8.6 C 0 km/h
675 07-10-2019 08:10:00 8.6 C 8.34 g/m*3 8.6 C 0 km/h
Sensor: Nr:Datum:Temp:Abs-Feuchte:Windchill:Wind:
Aussen-T/F 676 07-10-2019 08:15:00 8.6 C 8.34 g/m*3 8.6 C 0 km/h
677 07-10-2019 08:20:00 8.6 C 8.34 g/m*3 8.6 C 0 km/h
678 07-10-2019 08:25:00 8.7 C 8.39 g/m*3 8.7 C 0 km/h
679 07-10-2019 08:30:00 8.7 C 8.39 g/m*3 8.7 C 0 km/h
680 07-10-2019 08:35:00 8.7 C 8.39 g/m*3 8.7 C 0 km/h
681 07-10-2019 08:40:00 8.7 C 8.39 g/m*3 8.7 C 0 km/h
682 07-10-2019 08:45:00 8.7 C 8.39 g/m*3 8.7 C 0 km/h
683 07-10-2019 08:50:00 8.7 C 8.39 g/m*3 8.7 C 0 km/h
684 07-10-2019 08:55:00 8.8 C 8.44 g/m*3 8.8 C 0 km/h
685 07-10-2019 09:00:00 8.8 C 8.44 g/m*3 8.8 C 0 km/h
686 07-10-2019 09:05:00 8.8 C 8.44 g/m*3 8.8 C 0 km/h
687 07-10-2019 09:10:00 8.8 C 8.44 g/m*3 8.8 C 0 km/h
688 07-10-2019 09:15:00 8.8 C 8.44 g/m*3 8.8 C 0 km/h
689 07-10-2019 09:20:00 8.8 C 8.44 g/m*3 8.8 C 1.6 km/h
690 07-10-2019 09:25:00 8.8 C 8.44 g/m*3 8.8 C 0 km/h
691 07-10-2019 09:30:00 8.8 C 8.44 g/m*3 8.8 C 0 km/h
692 07-10-2019 09:35:00 8.8 C 8.44 g/m*3 8.8 C 0 km/h
693 07-10-2019 09:40:00 8.9 C 8.5 g/m*3 8.9 C 0 km/h
694 07-10-2019 09:45:00 8.9 C 8.5 g/m*3 8.9 C 0 km/h
695 07-10-2019 09:50:00 8.9 C 8.5 g/m*3 8.9 C 0 km/h
696 07-10-2019 09:55:00 8.9 C 8.5 g/m*3 8.9 C 1.6 km/h
697 07-10-2019 10:00:00 8.9 C 8.5 g/m*3 8.9 C 0 km/h
698 07-10-2019 10:05:00 8.9 C 8.5 g/m*3 8.9 C 0 km/h
699 07-10-2019 10:10:00 9 C 8.55 g/m*3 9 C 0 km/h
700 07-10-2019 10:15:00 9.1 C 8.61 g/m*3 9.1 C 0 km/h
Sensor: Nr:Datum:Temp:Abs-Feuchte:Windchill:Wind:
Aussen-T/F 701 07-10-2019 10:20:00 9.1 C 8.61 g/m*3 9.1 C 0 km/h
702 07-10-2019 10:25:00 9.1 C 8.61 g/m*3 9.1 C 0 km/h
703 07-10-2019 10:30:00 9.1 C 8.61 g/m*3 9.1 C 1.6 km/h
704 07-10-2019 10:35:00 9.1 C 8.61 g/m*3 9.1 C 1.6 km/h
705 07-10-2019 10:40:00 9.1 C 8.61 g/m*3 9.1 C 3.2 km/h
706 07-10-2019 10:45:00 9.2 C 8.66 g/m*3 9.2 C 0 km/h
707 07-10-2019 10:50:00 9.2 C 8.66 g/m*3 9.2 C 3.2 km/h
708 07-10-2019 10:55:00 9.2 C 8.66 g/m*3 9.2 C 3.2 km/h
709 07-10-2019 11:00:00 9.3 C 8.72 g/m*3 9.3 C 1.6 km/h
710 07-10-2019 11:05:00 9.3 C 8.72 g/m*3 9.3 C 1.6 km/h
711 07-10-2019 11:10:00 9.3 C 8.72 g/m*3 9.3 C 3.2 km/h
712 07-10-2019 11:15:00 9.4 C 8.77 g/m*3 9.4 C 3.2 km/h
713 07-10-2019 11:20:00 9.6 C 8.89 g/m*3 9.6 C 0 km/h
714 07-10-2019 11:25:00 9.6 C 8.89 g/m*3 9.6 C 0 km/h
715 07-10-2019 11:30:00 9.7 C 8.94 g/m*3 9.7 C 1.6 km/h
716 07-10-2019 11:35:00 9.7 C 8.94 g/m*3 9.7 C 4.8 km/h
717 07-10-2019 11:40:00 9.9 C 8.96 g/m*3 9.9 C 4.8 km/h
718 07-10-2019 11:45:00 10 C 9.11 g/m*3 10 C 3.2 km/h
719 07-10-2019 11:50:00 10 C 9.02 g/m*3 9.37 C 6.4 km/h
720 07-10-2019 11:55:00 10 C 8.93 g/m*3 8.68 C 9.7 km/h
721 07-10-2019 12:00:00 10.1 C 8.98 g/m*3 10.1 C 3.2 km/h
722 07-10-2019 12:05:00 10.2 C 9.04 g/m*3 10.2 C 3.2 km/h
723 07-10-2019 12:10:00 10.2 C 8.95 g/m*3 10.2 C 1.6 km/h
724 07-10-2019 12:15:00 10.3 C 9 g/m*3 9.72 C 6.4 km/h
725 07-10-2019 12:20:00 10.4 C 9.06 g/m*3 10.4 C 1.6 km/h
Sensor: Nr:Datum:Temp:Abs-Feuchte:Windchill:Wind:
Aussen-T/F 726 07-10-2019 12:25:00 10.6 C 9.17 g/m*3 10.6 C 3.2 km/h
727 07-10-2019 12:30:00 10.7 C 9.13 g/m*3 10.7 C 1.6 km/h
728 07-10-2019 12:35:00 10.7 C 9.13 g/m*3 10.7 C 3.2 km/h
729 07-10-2019 12:40:00 10.7 C 9.04 g/m*3 10.7 C 0 km/h
730 07-10-2019 12:45:00 10.7 C 9.04 g/m*3 10.7 C 1.6 km/h
731 07-10-2019 12:50:00 10.8 C 9.09 g/m*3 10.8 C 1.6 km/h
732 07-10-2019 12:55:00 10.8 C 8.99 g/m*3 10.8 C 1.6 km/h
733 07-10-2019 13:00:00 10.8 C 8.99 g/m*3 9.93 C 8.1 km/h
734 07-10-2019 13:05:00 10.8 C 8.99 g/m*3 10.8 C 1.6 km/h
735 07-10-2019 13:10:00 10.8 C 8.99 g/m*3 10.8 C 4.8 km/h
736 07-10-2019 13:15:00 10.7 C 8.84 g/m*3 10.7 C 3.2 km/h
737 07-10-2019 13:20:00 10.7 C 8.94 g/m*3 10.7 C 1.6 km/h
738 07-10-2019 13:25:00 10.8 C 8.99 g/m*3 10.8 C 1.6 km/h
739 07-10-2019 13:30:00 10.8 C 8.99 g/m*3 10.8 C 0 km/h
740 07-10-2019 13:35:00 10.8 C 8.99 g/m*3 10.8 C 1.6 km/h
741 07-10-2019 13:40:00 10.9 C 9.15 g/m*3 10.9 C 1.6 km/h
742 07-10-2019 13:45:00 10.9 C 9.05 g/m*3 10.9 C 1.6 km/h
743 07-10-2019 13:50:00 11 C 9.11 g/m*3 11 C 1.6 km/h
744 07-10-2019 13:55:00 11.1 C 8.96 g/m*3 11.1 C 4.8 km/h
745 07-10-2019 14:00:00 11.2 C 9.02 g/m*3 11.2 C 4.8 km/h
746 07-10-2019 14:05:00 11.2 C 9.02 g/m*3 11.2 C 11.3 km/h
747 07-10-2019 14:10:00 11.2 C 9.02 g/m*3 11.2 C 6.4 km/h
748 07-10-2019 14:15:00 11.3 C 9.08 g/m*3 11.3 C 4.8 km/h
749 07-10-2019 14:20:00 11.4 C 9.14 g/m*3 11.4 C 4.8 km/h
750 07-10-2019 14:25:00 11.4 C 9.03 g/m*3 11.4 C 4.8 km/h
Sensor: Nr:Datum:Temp:Abs-Feuchte:Windchill:Wind:
Aussen-T/F 751 07-10-2019 14:30:00 11.5 C 9.09 g/m*3 11.5 C 9.7 km/h
752 07-10-2019 14:35:00 11.6 C 9.15 g/m*3 11.6 C 6.4 km/h
753 07-10-2019 14:40:00 11.6 C 9.15 g/m*3 11.6 C 8.1 km/h
754 07-10-2019 14:45:00 11.7 C 9.2 g/m*3 11.7 C 4.8 km/h
755 07-10-2019 14:50:00 11.7 C 9.1 g/m*3 11.7 C 1.6 km/h
756 07-10-2019 14:55:00 11.8 C 9.16 g/m*3 11.8 C 3.2 km/h
757 07-10-2019 15:00:00 11.9 C 9.32 g/m*3 11.9 C 1.6 km/h
758 07-10-2019 15:05:00 12.1 C 9.33 g/m*3 12.1 C 1.6 km/h
759 07-10-2019 15:10:00 12.1 C 9.22 g/m*3 12.1 C 1.6 km/h
760 07-10-2019 15:15:00 12.2 C 9.39 g/m*3 12.2 C 4.8 km/h
761 07-10-2019 15:20:00 12.3 C 9.56 g/m*3 12.3 C 3.2 km/h
762 07-10-2019 15:25:00 12.3 C 9.45 g/m*3 12.3 C 1.6 km/h
763 07-10-2019 15:30:00 12.3 C 9.45 g/m*3 12.3 C 4.8 km/h
764 07-10-2019 15:35:00 12.3 C 9.34 g/m*3 12.3 C 1.6 km/h
765 07-10-2019 15:40:00 12.3 C 9.45 g/m*3 12.3 C 1.6 km/h
766 07-10-2019 15:45:00 12.3 C 9.56 g/m*3 12.3 C 0 km/h
767 07-10-2019 15:50:00 12.3 C 9.56 g/m*3 12.3 C 0 km/h
768 07-10-2019 15:55:00 12.3 C 9.56 g/m*3 12.3 C 0 km/h
769 07-10-2019 16:00:00 12.3 C 9.56 g/m*3 12.3 C 0 km/h
770 07-10-2019 16:05:00 12.2 C 9.5 g/m*3 12.2 C 0 km/h
771 07-10-2019 16:10:00 12.2 C 9.39 g/m*3 12.2 C 0 km/h
772 07-10-2019 16:15:00 12.2 C 9.5 g/m*3 12.2 C 0 km/h
773 07-10-2019 16:20:00 12.2 C 9.5 g/m*3 12.2 C 3.2 km/h
774 07-10-2019 16:25:00 12.2 C 9.39 g/m*3 12.2 C 3.2 km/h
775 07-10-2019 16:30:00 12.3 C 9.56 g/m*3 12.3 C 0 km/h
Sensor: Nr:Datum:Temp:Abs-Feuchte:Windchill:Wind:
Aussen-T/F 776 07-10-2019 16:35:00 12.3 C 9.56 g/m*3 12.3 C 1.6 km/h
777 07-10-2019 16:40:00 12.4 C 9.62 g/m*3 12.4 C 3.2 km/h
778 07-10-2019 16:45:00 12.4 C 9.62 g/m*3 12.4 C 0 km/h
779 07-10-2019 16:50:00 12.4 C 9.62 g/m*3 12.4 C 3.2 km/h
780 07-10-2019 16:55:00 12.4 C 9.62 g/m*3 12.4 C 1.6 km/h
781 07-10-2019 17:00:00 12.4 C 9.62 g/m*3 12.4 C 6.4 km/h
782 07-10-2019 17:05:00 12.4 C 9.62 g/m*3 12.4 C 1.6 km/h
783 07-10-2019 17:10:00 12.4 C 9.62 g/m*3 12.4 C 0 km/h
784 07-10-2019 17:15:00 12.4 C 9.62 g/m*3 12.4 C 1.6 km/h
785 07-10-2019 17:20:00 12.4 C 9.62 g/m*3 12.4 C 3.2 km/h
786 07-10-2019 17:25:00 12.3 C 9.56 g/m*3 12.3 C 1.6 km/h
787 07-10-2019 17:30:00 12.3 C 9.56 g/m*3 12.3 C 1.6 km/h
788 07-10-2019 17:35:00 12.3 C 9.56 g/m*3 12.3 C 0 km/h
789 07-10-2019 17:40:00 12.3 C 9.56 g/m*3 12.3 C 4.8 km/h
790 07-10-2019 17:45:00 12.2 C 9.5 g/m*3 12.2 C 3.2 km/h
791 07-10-2019 17:50:00 12.1 C 9.44 g/m*3 12.1 C 3.2 km/h
792 07-10-2019 17:55:00 12.1 C 9.54 g/m*3 12.1 C 1.6 km/h
793 07-10-2019 18:00:00 12.1 C 9.54 g/m*3 12.1 C 1.6 km/h
794 07-10-2019 18:05:00 12 C 9.48 g/m*3 12 C 0 km/h
795 07-10-2019 18:10:00 11.9 C 9.43 g/m*3 11.9 C 4.8 km/h
796 07-10-2019 18:15:00 11.9 C 9.53 g/m*3 11.9 C 0 km/h
797 07-10-2019 18:20:00 11.9 C 9.53 g/m*3 11.9 C 0 km/h
798 07-10-2019 18:25:00 11.9 C 9.64 g/m*3 11.9 C 0 km/h
799 07-10-2019 18:30:00 11.9 C 9.64 g/m*3 11.9 C 0 km/h
800 07-10-2019 18:35:00 11.9 C 9.64 g/m*3 11.9 C 0 km/h
Sensor: Nr:Datum:Temp:Abs-Feuchte:Windchill:Wind:
Aussen-T/F 801 07-10-2019 18:40:00 11.8 C 9.58 g/m*3 11.8 C 0 km/h
802 07-10-2019 18:45:00 11.8 C 9.58 g/m*3 11.8 C 0 km/h
803 07-10-2019 18:50:00 11.7 C 9.62 g/m*3 11.7 C 0 km/h
804 07-10-2019 18:55:00 11.6 C 9.56 g/m*3 11.6 C 0 km/h
805 07-10-2019 19:00:00 11.6 C 9.56 g/m*3 11.6 C 0 km/h
806 07-10-2019 19:05:00 11.5 C 9.5 g/m*3 11.5 C 0 km/h
807 07-10-2019 19:10:00 11.4 C 9.44 g/m*3 11.4 C 0 km/h
808 07-10-2019 19:15:00 11.3 C 9.49 g/m*3 11.3 C 0 km/h
809 07-10-2019 19:20:00 11.3 C 9.49 g/m*3 11.3 C 0 km/h
810 07-10-2019 19:25:00 11.2 C 9.43 g/m*3 11.2 C 0 km/h
811 07-10-2019 19:30:00 11.1 C 9.37 g/m*3 11.1 C 0 km/h
812 07-10-2019 19:35:00 11 C 9.31 g/m*3 11 C 0 km/h
813 07-10-2019 19:40:00 10.8 C 9.19 g/m*3 10.8 C 0 km/h
814 07-10-2019 19:45:00 10.7 C 9.13 g/m*3 10.7 C 0 km/h
815 07-10-2019 19:50:00 10.6 C 9.08 g/m*3 10.6 C 0 km/h
816 07-10-2019 19:55:00 10.6 C 9.17 g/m*3 10.6 C 0 km/h
817 07-10-2019 20:00:00 10.6 C 9.17 g/m*3 10.6 C 0 km/h
818 07-10-2019 20:05:00 10.6 C 9.17 g/m*3 10.6 C 0 km/h
819 07-10-2019 20:10:00 10.7 C 9.23 g/m*3 10.7 C 0 km/h
820 07-10-2019 20:15:00 10.7 C 9.33 g/m*3 10.7 C 0 km/h
821 07-10-2019 20:20:00 10.7 C 9.33 g/m*3 10.7 C 0 km/h
822 07-10-2019 20:25:00 10.7 C 9.33 g/m*3 10.7 C 0 km/h
823 07-10-2019 20:30:00 10.7 C 9.33 g/m*3 10.7 C 0 km/h
824 07-10-2019 20:35:00 10.8 C 9.39 g/m*3 10.8 C 0 km/h
825 07-10-2019 20:40:00 10.8 C 9.39 g/m*3 10.8 C 0 km/h
Sensor: Nr:Datum:Temp:Abs-Feuchte:Windchill:Wind:
Aussen-T/F 826 07-10-2019 20:45:00 10.8 C 9.39 g/m*3 10.8 C 0 km/h
827 07-10-2019 20:50:00 10.8 C 9.39 g/m*3 10.8 C 0 km/h
828 07-10-2019 20:55:00 10.8 C 9.39 g/m*3 10.8 C 0 km/h
829 07-10-2019 21:00:00 10.9 C 9.45 g/m*3 10.9 C 0 km/h
830 07-10-2019 21:05:00 10.9 C 9.45 g/m*3 10.9 C 0 km/h
831 07-10-2019 21:10:00 10.9 C 9.55 g/m*3 10.9 C 0 km/h
832 07-10-2019 21:15:00 10.9 C 9.55 g/m*3 10.9 C 0 km/h
833 07-10-2019 21:20:00 10.9 C 9.55 g/m*3 10.9 C 0 km/h
834 07-10-2019 21:25:00 10.9 C 9.55 g/m*3 10.9 C 0 km/h
835 07-10-2019 21:30:00 10.9 C 9.55 g/m*3 10.9 C 0 km/h
836 07-10-2019 21:35:00 11 C 9.61 g/m*3 11 C 0 km/h
837 07-10-2019 21:40:00 11.1 C 9.67 g/m*3 11.1 C 0 km/h
838 07-10-2019 21:45:00 11.1 C 9.67 g/m*3 11.1 C 0 km/h
839 07-10-2019 21:50:00 11.1 C 9.67 g/m*3 11.1 C 0 km/h
840 07-10-2019 21:55:00 11.1 C 9.67 g/m*3 11.1 C 0 km/h
841 07-10-2019 22:00:00 11.1 C 9.67 g/m*3 11.1 C 0 km/h
842 07-10-2019 22:05:00 11.1 C 9.67 g/m*3 11.1 C 1.6 km/h
843 07-10-2019 22:10:00 11.2 C 9.73 g/m*3 11.2 C 1.6 km/h
844 07-10-2019 22:15:00 11.2 C 9.73 g/m*3 11.2 C 0 km/h
845 07-10-2019 22:20:00 11.2 C 9.73 g/m*3 11.2 C 0 km/h
846 07-10-2019 22:25:00 11.1 C 9.67 g/m*3 11.1 C 0 km/h
847 07-10-2019 22:30:00 11.1 C 9.67 g/m*3 11.1 C 0 km/h
848 07-10-2019 22:35:00 11.1 C 9.67 g/m*3 11.1 C 0 km/h
849 07-10-2019 22:40:00 11.1 C 9.67 g/m*3 11.1 C 0 km/h
850 07-10-2019 22:45:00 11 C 9.61 g/m*3 11 C 0 km/h
Sensor: Nr:Datum:Temp:Abs-Feuchte:Windchill:Wind:
Aussen-T/F 851 07-10-2019 22:50:00 11 C 9.61 g/m*3 11 C 0 km/h
852 07-10-2019 22:55:00 11 C 9.61 g/m*3 11 C 0 km/h
853 07-10-2019 23:00:00 11.1 C 9.67 g/m*3 11.1 C 0 km/h
854 07-10-2019 23:05:00 11.1 C 9.67 g/m*3 11.1 C 0 km/h
855 07-10-2019 23:10:00 11.1 C 9.67 g/m*3 11.1 C 0 km/h
856 07-10-2019 23:15:00 11.1 C 9.67 g/m*3 11.1 C 0 km/h
857 07-10-2019 23:20:00 11.1 C 9.67 g/m*3 11.1 C 0 km/h
858 07-10-2019 23:25:00 11.1 C 9.67 g/m*3 11.1 C 1.6 km/h
859 07-10-2019 23:30:00 11.1 C 9.67 g/m*3 11.1 C 1.6 km/h
860 07-10-2019 23:35:00 11.1 C 9.67 g/m*3 11.1 C 0 km/h
861 07-10-2019 23:40:00 11.1 C 9.67 g/m*3 11.1 C 0 km/h
862 07-10-2019 23:45:00 11.1 C 9.67 g/m*3 11.1 C 0 km/h
863 07-10-2019 23:50:00 11.1 C 9.67 g/m*3 11.1 C 0 km/h
864 07-10-2019 23:55:00 11.1 C 9.67 g/m*3 11.1 C 0 km/h
865 08-10-2019 00:00:00 11.1 C 9.67 g/m*3 11.1 C 0 km/h
866 08-10-2019 00:05:00 11.1 C 9.67 g/m*3 11.1 C 0 km/h
867 08-10-2019 00:10:00 11.1 C 9.67 g/m*3 11.1 C 0 km/h
868 08-10-2019 00:15:00 11.1 C 9.67 g/m*3 11.1 C 0 km/h
869 08-10-2019 00:20:00 11.1 C 9.77 g/m*3 11.1 C 0 km/h
870 08-10-2019 00:25:00 11.1 C 9.77 g/m*3 11.1 C 0 km/h
871 08-10-2019 00:30:00 11.1 C 9.77 g/m*3 11.1 C 0 km/h
872 08-10-2019 00:35:00 11.1 C 9.77 g/m*3 11.1 C 0 km/h
873 08-10-2019 00:40:00 11.1 C 9.77 g/m*3 11.1 C 0 km/h
874 08-10-2019 00:45:00 11.1 C 9.77 g/m*3 11.1 C 1.6 km/h
875 08-10-2019 00:50:00 11.2 C 9.83 g/m*3 11.2 C 4.8 km/h
Sensor: Nr:Datum:Temp:Abs-Feuchte:Windchill:Wind:
Aussen-T/F 876 08-10-2019 00:55:00 11.2 C 9.83 g/m*3 11.2 C 0 km/h
877 08-10-2019 01:00:00 11.2 C 9.73 g/m*3 11.2 C 1.6 km/h
878 08-10-2019 01:05:00 11.2 C 9.73 g/m*3 11.2 C 1.6 km/h
879 08-10-2019 01:10:00 11.2 C 9.73 g/m*3 11.2 C 0 km/h
880 08-10-2019 01:15:00 11.2 C 9.73 g/m*3 11.2 C 1.6 km/h
881 08-10-2019 01:20:00 11.2 C 9.73 g/m*3 11.2 C 0 km/h
882 08-10-2019 01:25:00 11.2 C 9.73 g/m*3 11.2 C 1.6 km/h
883 08-10-2019 01:30:00 11.2 C 9.73 g/m*3 11.2 C 1.6 km/h
884 08-10-2019 01:35:00 11.3 C 9.79 g/m*3 11.3 C 1.6 km/h
885 08-10-2019 01:40:00 11.3 C 9.79 g/m*3 11.3 C 1.6 km/h
886 08-10-2019 01:45:00 11.3 C 9.89 g/m*3 11.3 C 0 km/h
887 08-10-2019 01:50:00 11.3 C 9.89 g/m*3 11.3 C 3.2 km/h
888 08-10-2019 01:55:00 11.4 C 9.96 g/m*3 11.4 C 1.6 km/h
889 08-10-2019 02:00:00 11.4 C 9.85 g/m*3 11.4 C 0 km/h
890 08-10-2019 02:05:00 11.4 C 9.85 g/m*3 11.4 C 0 km/h
891 08-10-2019 02:10:00 11.4 C 9.85 g/m*3 11.4 C 0 km/h
892 08-10-2019 02:15:00 11.4 C 9.85 g/m*3 11.4 C 0 km/h
893 08-10-2019 02:20:00 11.4 C 9.85 g/m*3 11.4 C 0 km/h
894 08-10-2019 02:25:00 11.4 C 9.85 g/m*3 11.4 C 0 km/h
895 08-10-2019 02:30:00 11.4 C 9.85 g/m*3 11.4 C 0 km/h
896 08-10-2019 02:35:00 11.4 C 9.85 g/m*3 11.4 C 1.6 km/h
897 08-10-2019 02:40:00 11.4 C 9.85 g/m*3 11.4 C 1.6 km/h
898 08-10-2019 02:45:00 11.5 C 9.92 g/m*3 11.5 C 4.8 km/h
899 08-10-2019 02:50:00 11.6 C 9.98 g/m*3 11.6 C 0 km/h
900 08-10-2019 02:55:00 11.6 C 9.98 g/m*3 11.6 C 3.2 km/h
Sensor: Nr:Datum:Temp:Abs-Feuchte:Windchill:Wind:
Aussen-T/F 901 08-10-2019 03:00:00 11.6 C 9.98 g/m*3 11.6 C 1.6 km/h
902 08-10-2019 03:05:00 11.7 C 10.04 g/m*3 11.7 C 4.8 km/h
903 08-10-2019 03:10:00 11.7 C 10.04 g/m*3 11.7 C 8.1 km/h
904 08-10-2019 03:15:00 11.7 C 10.04 g/m*3 11.7 C 0 km/h
905 08-10-2019 03:20:00 11.7 C 10.04 g/m*3 11.7 C 1.6 km/h
906 08-10-2019 03:25:00 11.8 C 10.1 g/m*3 11.8 C 8.1 km/h
907 08-10-2019 03:30:00 11.8 C 10.1 g/m*3 11.8 C 4.8 km/h
908 08-10-2019 03:35:00 11.8 C 10.1 g/m*3 11.8 C 1.6 km/h
909 08-10-2019 03:40:00 11.8 C 10 g/m*3 11.8 C 8.1 km/h
910 08-10-2019 03:45:00 11.8 C 10.1 g/m*3 11.8 C 0 km/h
911 08-10-2019 03:50:00 11.8 C 10 g/m*3 11.8 C 4.8 km/h
912 08-10-2019 03:55:00 11.9 C 10.06 g/m*3 11.9 C 1.6 km/h
913 08-10-2019 04:00:00 11.9 C 10.06 g/m*3 11.9 C 6.4 km/h
914 08-10-2019 04:05:00 11.9 C 10.06 g/m*3 11.9 C 0 km/h
915 08-10-2019 04:10:00 11.9 C 10.06 g/m*3 11.9 C 1.6 km/h
916 08-10-2019 04:15:00 11.9 C 10.06 g/m*3 11.9 C 3.2 km/h
917 08-10-2019 04:20:00 11.8 C 10 g/m*3 11.8 C 3.2 km/h
918 08-10-2019 04:25:00 11.8 C 10 g/m*3 11.8 C 1.6 km/h
919 08-10-2019 04:30:00 11.9 C 10.06 g/m*3 11.9 C 3.2 km/h
920 08-10-2019 04:35:00 11.9 C 10.06 g/m*3 11.9 C 9.7 km/h
921 08-10-2019 04:40:00 11.9 C 9.96 g/m*3 11.9 C 0 km/h
922 08-10-2019 04:45:00 12 C 10.02 g/m*3 12 C 0 km/h
923 08-10-2019 04:50:00 11.9 C 9.96 g/m*3 11.9 C 3.2 km/h
924 08-10-2019 04:55:00 12 C 10.02 g/m*3 12 C 11.3 km/h
925 08-10-2019 05:00:00 12 C 10.02 g/m*3 12 C 3.2 km/h
Sensor: Nr:Datum:Temp:Abs-Feuchte:Windchill:Wind:
Aussen-T/F 926 08-10-2019 05:05:00 12.1 C 10.08 g/m*3 12.1 C 6.4 km/h
927 08-10-2019 05:10:00 12.1 C 9.97 g/m*3 12.1 C 8.1 km/h
928 08-10-2019 05:15:00 12.2 C 10.04 g/m*3 12.2 C 11.3 km/h
929 08-10-2019 05:20:00 12.3 C 9.99 g/m*3 12.3 C 9.7 km/h
930 08-10-2019 05:25:00 12.3 C 9.99 g/m*3 12.3 C 11.3 km/h
931 08-10-2019 05:30:00 12.4 C 9.94 g/m*3 12.4 C 11.3 km/h
932 08-10-2019 05:35:00 12.5 C 10 g/m*3 12.5 C 6.4 km/h
933 08-10-2019 05:40:00 12.5 C 10 g/m*3 12.5 C 4.8 km/h
934 08-10-2019 05:45:00 12.5 C 10 g/m*3 12.5 C 12.9 km/h
935 08-10-2019 05:50:00 12.5 C 10 g/m*3 12.5 C 8.1 km/h
936 08-10-2019 05:55:00 12.4 C 9.94 g/m*3 12.4 C 8.1 km/h
937 08-10-2019 06:00:00 12.4 C 9.94 g/m*3 12.4 C 9.7 km/h
938 08-10-2019 06:05:00 12.3 C 9.88 g/m*3 12.3 C 9.7 km/h
939 08-10-2019 06:10:00 12.3 C 9.99 g/m*3 12.3 C 9.7 km/h
940 08-10-2019 06:15:00 12.3 C 9.99 g/m*3 12.3 C 9.7 km/h
941 08-10-2019 06:20:00 12.2 C 9.93 g/m*3 12.2 C 3.2 km/h
942 08-10-2019 06:25:00 12.2 C 9.93 g/m*3 12.2 C 6.4 km/h
943 08-10-2019 06:30:00 12.2 C 9.93 g/m*3 12.2 C 0 km/h
944 08-10-2019 06:35:00 12.2 C 10.04 g/m*3 12.2 C 1.6 km/h
945 08-10-2019 06:40:00 12.1 C 9.97 g/m*3 12.1 C 0 km/h
946 08-10-2019 06:45:00 12.1 C 9.97 g/m*3 12.1 C 0 km/h
947 08-10-2019 06:50:00 12 C 10.02 g/m*3 12 C 1.6 km/h
948 08-10-2019 06:55:00 11.9 C 9.96 g/m*3 11.9 C 0 km/h
949 08-10-2019 07:00:00 11.9 C 9.96 g/m*3 11.9 C 0 km/h
950 08-10-2019 07:05:00 11.8 C 9.89 g/m*3 11.8 C 1.6 km/h
Sensor: Nr:Datum:Temp:Abs-Feuchte:Windchill:Wind:
Aussen-T/F 951 08-10-2019 07:10:00 11.8 C 9.89 g/m*3 11.8 C 0 km/h
952 08-10-2019 07:15:00 11.8 C 10 g/m*3 11.8 C 4.8 km/h
953 08-10-2019 07:20:00 11.8 C 10 g/m*3 11.8 C 6.4 km/h
954 08-10-2019 07:25:00 11.8 C 10 g/m*3 11.8 C 1.6 km/h
955 08-10-2019 07:30:00 11.8 C 10 g/m*3 11.8 C 3.2 km/h
956 08-10-2019 07:35:00 11.8 C 10 g/m*3 11.8 C 6.4 km/h
957 08-10-2019 07:40:00 11.8 C 10 g/m*3 11.8 C 0 km/h
958 08-10-2019 07:45:00 11.7 C 9.94 g/m*3 11.7 C 0 km/h
959 08-10-2019 07:50:00 11.7 C 9.94 g/m*3 11.7 C 4.8 km/h
960 08-10-2019 07:55:00 11.8 C 10 g/m*3 11.8 C 1.6 km/h
961 08-10-2019 08:00:00 11.8 C 10 g/m*3 11.8 C 3.2 km/h
962 08-10-2019 08:05:00 11.8 C 10 g/m*3 11.8 C 8.1 km/h
963 08-10-2019 08:10:00 11.8 C 10.1 g/m*3 11.8 C 1.6 km/h
964 08-10-2019 08:15:00 11.8 C 10.1 g/m*3 11.8 C 9.7 km/h
965 08-10-2019 08:20:00 11.8 C 10.1 g/m*3 11.8 C 6.4 km/h
966 08-10-2019 08:25:00 11.8 C 10.1 g/m*3 11.8 C 12.9 km/h
967 08-10-2019 08:30:00 11.8 C 10.1 g/m*3 11.8 C 1.6 km/h
968 08-10-2019 08:35:00 11.8 C 10.1 g/m*3 11.8 C 6.4 km/h
969 08-10-2019 08:40:00 11.8 C 10.1 g/m*3 11.8 C 0 km/h
970 08-10-2019 08:45:00 11.9 C 10.17 g/m*3 11.9 C 9.7 km/h
971 08-10-2019 08:50:00 11.9 C 10.17 g/m*3 11.9 C 1.6 km/h
972 08-10-2019 08:55:00 11.9 C 10.17 g/m*3 11.9 C 8.1 km/h
973 08-10-2019 09:00:00 11.9 C 10.17 g/m*3 11.9 C 6.4 km/h
974 08-10-2019 09:05:00 11.9 C 10.17 g/m*3 11.9 C 4.8 km/h
975 08-10-2019 09:10:00 11.9 C 10.17 g/m*3 11.9 C 4.8 km/h
Sensor: Nr:Datum:Temp:Abs-Feuchte:Windchill:Wind:
Aussen-T/F 976 08-10-2019 09:15:00 11.9 C 10.17 g/m*3 11.9 C 16.1 km/h
977 08-10-2019 09:20:00 11.9 C 10.17 g/m*3 11.9 C 16.1 km/h
978 08-10-2019 09:25:00 12 C 10.23 g/m*3 12 C 6.4 km/h
979 08-10-2019 09:30:00 12.1 C 10.29 g/m*3 12.1 C 4.8 km/h
980 08-10-2019 09:35:00 12.1 C 10.29 g/m*3 12.1 C 14.5 km/h
981 08-10-2019 09:40:00 12.1 C 10.29 g/m*3 12.1 C 11.3 km/h
982 08-10-2019 09:45:00 12.2 C 10.36 g/m*3 12.2 C 14.5 km/h
983 08-10-2019 09:50:00 12.2 C 10.36 g/m*3 12.2 C 12.9 km/h
984 08-10-2019 09:55:00 12.2 C 10.36 g/m*3 12.2 C 8.1 km/h
985 08-10-2019 10:00:00 12.3 C 10.42 g/m*3 12.3 C 11.3 km/h
986 08-10-2019 10:05:00 12.3 C 10.32 g/m*3 12.3 C 14.5 km/h
987 08-10-2019 10:10:00 12.3 C 10.32 g/m*3 12.3 C 11.3 km/h
988 08-10-2019 10:15:00 12.3 C 10.32 g/m*3 12.3 C 12.9 km/h
989 08-10-2019 10:20:00 12.4 C 10.38 g/m*3 12.4 C 11.3 km/h
990 08-10-2019 10:25:00 12.4 C 10.38 g/m*3 12.4 C 9.7 km/h
991 08-10-2019 10:30:00 12.4 C 10.38 g/m*3 12.4 C 8.1 km/h
992 08-10-2019 10:35:00 12.5 C 10.44 g/m*3 12.5 C 11.3 km/h
993 08-10-2019 10:40:00 12.6 C 10.51 g/m*3 12.6 C 16.1 km/h
994 08-10-2019 10:45:00 12.7 C 10.58 g/m*3 12.7 C 14.5 km/h
995 08-10-2019 10:50:00 12.8 C 10.64 g/m*3 12.8 C 11.3 km/h
996 08-10-2019 10:55:00 12.9 C 10.71 g/m*3 12.9 C 20.9 km/h
997 08-10-2019 11:00:00 13 C 10.66 g/m*3 13 C 20.9 km/h
998 08-10-2019 11:05:00 13.1 C 10.73 g/m*3 13.1 C 12.9 km/h
999 08-10-2019 11:10:00 13.1 C 10.73 g/m*3 13.1 C 9.7 km/h
1000 08-10-2019 11:15:00 13.3 C 10.86 g/m*3 13.3 C 14.5 km/h
Sensor: Nr:Datum:Temp:Abs-Feuchte:Windchill:Wind:
Aussen-T/F 1001 08-10-2019 11:20:00 13.4 C 10.93 g/m*3 13.4 C 11.3 km/h
1002 08-10-2019 11:25:00 13.6 C 10.95 g/m*3 13.6 C 11.3 km/h
1003 08-10-2019 11:30:00 13.6 C 10.95 g/m*3 13.6 C 9.7 km/h
1004 08-10-2019 11:35:00 13.7 C 11.01 g/m*3 13.7 C 12.9 km/h
1005 08-10-2019 11:40:00 13.8 C 10.96 g/m*3 13.8 C 16.1 km/h
1006 08-10-2019 11:45:00 13.8 C 10.96 g/m*3 13.8 C 17.7 km/h
1007 08-10-2019 11:50:00 13.8 C 10.96 g/m*3 13.8 C 16.1 km/h
1008 08-10-2019 11:55:00 13.8 C 10.96 g/m*3 13.8 C 11.3 km/h
1009 08-10-2019 12:00:00 13.8 C 10.96 g/m*3 13.8 C 14.5 km/h
1010 08-10-2019 12:05:00 13.8 C 10.96 g/m*3 13.8 C 14.5 km/h
1011 08-10-2019 12:10:00 13.8 C 10.96 g/m*3 13.8 C 11.3 km/h
1012 08-10-2019 12:15:00 13.8 C 10.96 g/m*3 13.8 C 16.1 km/h
1013 08-10-2019 12:20:00 13.8 C 10.96 g/m*3 13.8 C 19.3 km/h
1014 08-10-2019 12:25:00 13.8 C 10.96 g/m*3 13.8 C 19.3 km/h
1015 08-10-2019 12:30:00 13.8 C 10.96 g/m*3 13.8 C 14.5 km/h
1016 08-10-2019 12:35:00 13.8 C 10.84 g/m*3 13.8 C 11.3 km/h
1017 08-10-2019 12:40:00 13.9 C 10.91 g/m*3 13.9 C 14.5 km/h
1018 08-10-2019 12:45:00 13.9 C 10.91 g/m*3 13.9 C 14.5 km/h
1019 08-10-2019 12:50:00 14 C 10.98 g/m*3 14 C 8.1 km/h
1020 08-10-2019 12:55:00 14.1 C 11.04 g/m*3 14.1 C 14.5 km/h
1021 08-10-2019 13:00:00 14.1 C 11.04 g/m*3 14.1 C 12.9 km/h
1022 08-10-2019 13:05:00 14.1 C 11.04 g/m*3 14.1 C 12.9 km/h
1023 08-10-2019 13:10:00 14.2 C 11.11 g/m*3 14.2 C 14.5 km/h
1024 08-10-2019 13:15:00 14.2 C 11.11 g/m*3 14.2 C 11.3 km/h
1025 08-10-2019 13:20:00 14.2 C 11.11 g/m*3 14.2 C 17.7 km/h
Sensor: Nr:Datum:Temp:Abs-Feuchte:Windchill:Wind:
Aussen-T/F 1026 08-10-2019 13:25:00 14.2 C 11.23 g/m*3 14.2 C 9.7 km/h
1027 08-10-2019 13:30:00 14.2 C 11.23 g/m*3 14.2 C 6.4 km/h
1028 08-10-2019 13:35:00 14.3 C 11.3 g/m*3 14.3 C 4.8 km/h
1029 08-10-2019 13:40:00 14.2 C 11.11 g/m*3 14.2 C 9.7 km/h
1030 08-10-2019 13:45:00 14.3 C 11.3 g/m*3 14.3 C 4.8 km/h
1031 08-10-2019 13:50:00 14.3 C 11.3 g/m*3 14.3 C 4.8 km/h
1032 08-10-2019 13:55:00 14.4 C 11.37 g/m*3 14.4 C 9.7 km/h
1033 08-10-2019 14:00:00 14.4 C 11.37 g/m*3 14.4 C 8.1 km/h
1034 08-10-2019 14:05:00 14.4 C 11.25 g/m*3 14.4 C 14.5 km/h
1035 08-10-2019 14:10:00 14.5 C 11.44 g/m*3 14.5 C 11.3 km/h
1036 08-10-2019 14:15:00 14.6 C 11.51 g/m*3 14.6 C 6.4 km/h
1037 08-10-2019 14:20:00 14.6 C 11.51 g/m*3 14.6 C 6.4 km/h
1038 08-10-2019 14:25:00 14.6 C 11.39 g/m*3 14.6 C 12.9 km/h
1039 08-10-2019 14:30:00 14.6 C 11.39 g/m*3 14.6 C 8.1 km/h
1040 08-10-2019 14:35:00 14.7 C 11.46 g/m*3 14.7 C 6.4 km/h
1041 08-10-2019 14:40:00 14.7 C 11.46 g/m*3 14.7 C 12.9 km/h
1042 08-10-2019 14:45:00 14.7 C 11.46 g/m*3 14.7 C 12.9 km/h
1043 08-10-2019 14:50:00 14.7 C 11.46 g/m*3 14.7 C 8.1 km/h
1044 08-10-2019 14:55:00 14.7 C 11.46 g/m*3 14.7 C 12.9 km/h
1045 08-10-2019 15:00:00 14.7 C 11.46 g/m*3 14.7 C 12.9 km/h
1046 08-10-2019 15:05:00 14.6 C 11.39 g/m*3 14.6 C 9.7 km/h
1047 08-10-2019 15:10:00 14.6 C 11.39 g/m*3 14.6 C 17.7 km/h
1048 08-10-2019 15:15:00 14.6 C 11.39 g/m*3 14.6 C 9.7 km/h
1049 08-10-2019 15:20:00 14.6 C 11.51 g/m*3 14.6 C 8.1 km/h
1050 08-10-2019 15:25:00 14.6 C 11.51 g/m*3 14.6 C 8.1 km/h
Sensor: Nr:Datum:Temp:Abs-Feuchte:Windchill:Wind:
Aussen-T/F 1051 08-10-2019 15:30:00 14.5 C 11.57 g/m*3 14.5 C 4.8 km/h
1052 08-10-2019 15:35:00 14.4 C 11.5 g/m*3 14.4 C 11.3 km/h
1053 08-10-2019 15:40:00 14.3 C 11.43 g/m*3 14.3 C 11.3 km/h
1054 08-10-2019 15:45:00 14.3 C 11.43 g/m*3 14.3 C 8.1 km/h
1055 08-10-2019 15:50:00 14.3 C 11.55 g/m*3 14.3 C 1.6 km/h
1056 08-10-2019 15:55:00 14.3 C 11.55 g/m*3 14.3 C 11.3 km/h
1057 08-10-2019 16:00:00 14.3 C 11.55 g/m*3 14.3 C 6.4 km/h
1058 08-10-2019 16:05:00 14.3 C 11.55 g/m*3 14.3 C 8.1 km/h
1059 08-10-2019 16:10:00 14.3 C 11.55 g/m*3 14.3 C 3.2 km/h
1060 08-10-2019 16:15:00 14.3 C 11.55 g/m*3 14.3 C 4.8 km/h
1061 08-10-2019 16:20:00 14.2 C 11.48 g/m*3 14.2 C 6.4 km/h
1062 08-10-2019 16:25:00 14.2 C 11.48 g/m*3 14.2 C 11.3 km/h
1063 08-10-2019 16:30:00 14.2 C 11.6 g/m*3 14.2 C 8.1 km/h
1064 08-10-2019 16:35:00 14.2 C 11.6 g/m*3 14.2 C 8.1 km/h
1065 08-10-2019 16:40:00 14.2 C 11.6 g/m*3 14.2 C 6.4 km/h
1066 08-10-2019 16:45:00 14.2 C 11.6 g/m*3 14.2 C 4.8 km/h
1067 08-10-2019 16:50:00 14.2 C 11.6 g/m*3 14.2 C 8.1 km/h
1068 08-10-2019 16:55:00 14.1 C 11.53 g/m*3 14.1 C 4.8 km/h
1069 08-10-2019 17:00:00 14.1 C 11.53 g/m*3 14.1 C 9.7 km/h
1070 08-10-2019 17:05:00 14.1 C 11.53 g/m*3 14.1 C 9.7 km/h
1071 08-10-2019 17:10:00 14.1 C 11.53 g/m*3 14.1 C 1.6 km/h
1072 08-10-2019 17:15:00 14.1 C 11.53 g/m*3 14.1 C 1.6 km/h
1073 08-10-2019 17:20:00 14.1 C 11.53 g/m*3 14.1 C 3.2 km/h
1074 08-10-2019 17:25:00 14 C 11.46 g/m*3 14 C 4.8 km/h
1075 08-10-2019 17:30:00 14.1 C 11.53 g/m*3 14.1 C 1.6 km/h
Sensor: Nr:Datum:Temp:Abs-Feuchte:Windchill:Wind:
Aussen-T/F 1076 08-10-2019 17:35:00 14.1 C 11.65 g/m*3 14.1 C 1.6 km/h
1077 08-10-2019 17:40:00 14.1 C 11.65 g/m*3 14.1 C 1.6 km/h
1078 08-10-2019 17:45:00 14 C 11.58 g/m*3 14 C 3.2 km/h
1079 08-10-2019 17:50:00 14 C 11.58 g/m*3 14 C 3.2 km/h
1080 08-10-2019 17:55:00 13.9 C 11.51 g/m*3 13.9 C 1.6 km/h
1081 08-10-2019 18:00:00 13.9 C 11.51 g/m*3 13.9 C 1.6 km/h
1082 08-10-2019 18:05:00 13.9 C 11.51 g/m*3 13.9 C 8.1 km/h
1083 08-10-2019 18:10:00 13.9 C 11.51 g/m*3 13.9 C 4.8 km/h
1084 08-10-2019 18:15:00 13.9 C 11.51 g/m*3 13.9 C 8.1 km/h
1085 08-10-2019 18:20:00 13.9 C 11.51 g/m*3 13.9 C 3.2 km/h
1086 08-10-2019 18:25:00 13.9 C 11.51 g/m*3 13.9 C 9.7 km/h
1087 08-10-2019 18:30:00 13.9 C 11.51 g/m*3 13.9 C 0 km/h
1088 08-10-2019 18:35:00 13.9 C 11.51 g/m*3 13.9 C 0 km/h
1089 08-10-2019 18:40:00 13.8 C 11.44 g/m*3 13.8 C 0 km/h
1090 08-10-2019 18:45:00 13.8 C 11.44 g/m*3 13.8 C 0 km/h
1091 08-10-2019 18:50:00 13.8 C 11.44 g/m*3 13.8 C 0 km/h
1092 08-10-2019 18:55:00 13.8 C 11.44 g/m*3 13.8 C 1.6 km/h
1093 08-10-2019 19:00:00 13.7 C 11.37 g/m*3 13.7 C 3.2 km/h
1094 08-10-2019 19:05:00 13.8 C 11.44 g/m*3 13.8 C 6.4 km/h
1095 08-10-2019 19:10:00 13.8 C 11.44 g/m*3 13.8 C 8.1 km/h
1096 08-10-2019 19:15:00 13.8 C 11.44 g/m*3 13.8 C 1.6 km/h
1097 08-10-2019 19:20:00 13.8 C 11.44 g/m*3 13.8 C 3.2 km/h
1098 08-10-2019 19:25:00 13.8 C 11.44 g/m*3 13.8 C 0 km/h
1099 08-10-2019 19:30:00 13.8 C 11.44 g/m*3 13.8 C 0 km/h
1100 08-10-2019 19:35:00 13.8 C 11.44 g/m*3 13.8 C 0 km/h
Sensor: Nr:Datum:Temp:Abs-Feuchte:Windchill:Wind:
Aussen-T/F 1101 08-10-2019 19:40:00 13.8 C 11.44 g/m*3 13.8 C 0 km/h
1102 08-10-2019 19:45:00 13.8 C 11.44 g/m*3 13.8 C 0 km/h
1103 08-10-2019 19:50:00 13.8 C 11.44 g/m*3 13.8 C 0 km/h
1104 08-10-2019 19:55:00 13.8 C 11.44 g/m*3 13.8 C 0 km/h
1105 08-10-2019 20:00:00 13.7 C 11.37 g/m*3 13.7 C 1.6 km/h
1106 08-10-2019 20:05:00 13.6 C 11.3 g/m*3 13.6 C 0 km/h
1107 08-10-2019 20:10:00 13.6 C 11.3 g/m*3 13.6 C 3.2 km/h
1108 08-10-2019 20:15:00 13.6 C 11.3 g/m*3 13.6 C 1.6 km/h
1109 08-10-2019 20:20:00 13.6 C 11.3 g/m*3 13.6 C 0 km/h
1110 08-10-2019 20:25:00 13.6 C 11.3 g/m*3 13.6 C 0 km/h
1111 08-10-2019 20:30:00 13.6 C 11.3 g/m*3 13.6 C 0 km/h
1112 08-10-2019 20:35:00 13.6 C 11.42 g/m*3 13.6 C 0 km/h
1113 08-10-2019 20:40:00 13.5 C 11.35 g/m*3 13.5 C 0 km/h
1114 08-10-2019 20:45:00 13.4 C 11.28 g/m*3 13.4 C 0 km/h
1115 08-10-2019 20:50:00 13.4 C 11.28 g/m*3 13.4 C 0 km/h
1116 08-10-2019 20:55:00 13.4 C 11.16 g/m*3 13.4 C 0 km/h
1117 08-10-2019 21:00:00 13.3 C 11.09 g/m*3 13.3 C 0 km/h
1118 08-10-2019 21:05:00 13.3 C 11.09 g/m*3 13.3 C 0 km/h
1119 08-10-2019 21:10:00 13.3 C 11.21 g/m*3 13.3 C 0 km/h
1120 08-10-2019 21:15:00 13.3 C 11.21 g/m*3 13.3 C 0 km/h
1121 08-10-2019 21:20:00 13.3 C 11.21 g/m*3 13.3 C 0 km/h
1122 08-10-2019 21:25:00 13.3 C 11.21 g/m*3 13.3 C 0 km/h
1123 08-10-2019 21:30:00 13.2 C 11.14 g/m*3 13.2 C 0 km/h
1124 08-10-2019 21:35:00 13.2 C 11.14 g/m*3 13.2 C 0 km/h
1125 08-10-2019 21:40:00 13.2 C 11.14 g/m*3 13.2 C 0 km/h
Sensor: Nr:Datum:Temp:Abs-Feuchte:Windchill:Wind:
Aussen-T/F 1126 08-10-2019 21:45:00 13.1 C 11.07 g/m*3 13.1 C 0 km/h
1127 08-10-2019 21:50:00 13.1 C 11.07 g/m*3 13.1 C 0 km/h
1128 08-10-2019 21:55:00 13.1 C 11.07 g/m*3 13.1 C 1.6 km/h
1129 08-10-2019 22:00:00 13.1 C 11.07 g/m*3 13.1 C 0 km/h
1130 08-10-2019 22:05:00 13 C 11 g/m*3 13 C 0 km/h
1131 08-10-2019 22:10:00 13 C 11 g/m*3 13 C 0 km/h
1132 08-10-2019 22:15:00 13 C 11 g/m*3 13 C 0 km/h
1133 08-10-2019 22:20:00 12.9 C 10.93 g/m*3 12.9 C 0 km/h
1134 08-10-2019 22:25:00 12.9 C 10.93 g/m*3 12.9 C 0 km/h
1135 08-10-2019 22:30:00 12.8 C 10.87 g/m*3 12.8 C 0 km/h
1136 08-10-2019 22:35:00 12.8 C 10.87 g/m*3 12.8 C 0 km/h
1137 08-10-2019 22:40:00 12.7 C 10.8 g/m*3 12.7 C 0 km/h
1138 08-10-2019 22:45:00 12.7 C 10.8 g/m*3 12.7 C 0 km/h
1139 08-10-2019 22:50:00 12.6 C 10.73 g/m*3 12.6 C 0 km/h
1140 08-10-2019 22:55:00 12.4 C 10.6 g/m*3 12.4 C 0 km/h
1141 08-10-2019 23:00:00 12.2 C 10.36 g/m*3 12.2 C 0 km/h
1142 08-10-2019 23:05:00 12.1 C 10.29 g/m*3 12.1 C 1.6 km/h
1143 08-10-2019 23:10:00 12 C 10.23 g/m*3 12 C 0 km/h
1144 08-10-2019 23:15:00 11.8 C 10.1 g/m*3 11.8 C 0 km/h
1145 08-10-2019 23:20:00 11.7 C 10.04 g/m*3 11.7 C 0 km/h
1146 08-10-2019 23:25:00 11.7 C 10.04 g/m*3 11.7 C 0 km/h
1147 08-10-2019 23:30:00 11.6 C 9.98 g/m*3 11.6 C 1.6 km/h
1148 08-10-2019 23:35:00 11.6 C 9.98 g/m*3 11.6 C 1.6 km/h
1149 08-10-2019 23:40:00 11.5 C 9.92 g/m*3 11.5 C 1.6 km/h
1150 08-10-2019 23:45:00 11.4 C 9.96 g/m*3 11.4 C 0 km/h
Sensor: Nr:Datum:Temp:Abs-Feuchte:Windchill:Wind:
Aussen-T/F 1151 08-10-2019 23:50:00 11.3 C 9.89 g/m*3 11.3 C 0 km/h
1152 08-10-2019 23:55:00 11.3 C 9.79 g/m*3 11.3 C 0 km/h
1153 09-10-2019 00:00:00 11.2 C 9.73 g/m*3 11.2 C 1.6 km/h
1154 09-10-2019 00:05:00 11.2 C 9.83 g/m*3 11.2 C 0 km/h
1155 09-10-2019 00:10:00 11.1 C 9.77 g/m*3 11.1 C 0 km/h
1156 09-10-2019 00:15:00 11 C 9.71 g/m*3 11 C 0 km/h
1157 09-10-2019 00:20:00 10.9 C 9.65 g/m*3 10.9 C 0 km/h
1158 09-10-2019 00:25:00 10.8 C 9.59 g/m*3 10.8 C 0 km/h
1159 09-10-2019 00:30:00 10.8 C 9.59 g/m*3 10.8 C 0 km/h
1160 09-10-2019 00:35:00 10.7 C 9.53 g/m*3 10.7 C 0 km/h
1161 09-10-2019 00:40:00 10.5 C 9.31 g/m*3 10.5 C 0 km/h
1162 09-10-2019 00:45:00 10.4 C 9.35 g/m*3 10.4 C 0 km/h
1163 09-10-2019 00:50:00 10.4 C 9.35 g/m*3 10.4 C 0 km/h
1164 09-10-2019 00:55:00 10.4 C 9.35 g/m*3 10.4 C 0 km/h
1165 09-10-2019 01:00:00 10.4 C 9.35 g/m*3 10.4 C 0 km/h
1166 09-10-2019 01:05:00 10.4 C 9.35 g/m*3 10.4 C 1.6 km/h
1167 09-10-2019 01:10:00 10.4 C 9.35 g/m*3 10.4 C 0 km/h
1168 09-10-2019 01:15:00 10.4 C 9.35 g/m*3 10.4 C 0 km/h
1169 09-10-2019 01:20:00 10.4 C 9.35 g/m*3 10.4 C 0 km/h
1170 09-10-2019 01:25:00 10.3 C 9.29 g/m*3 10.3 C 0 km/h
1171 09-10-2019 01:30:00 10.3 C 9.29 g/m*3 10.3 C 0 km/h
1172 09-10-2019 01:35:00 10.3 C 9.29 g/m*3 10.3 C 0 km/h
1173 09-10-2019 01:40:00 10.3 C 9.29 g/m*3 10.3 C 0 km/h
1174 09-10-2019 01:45:00 10.3 C 9.29 g/m*3 10.3 C 0 km/h
1175 09-10-2019 01:50:00 10.3 C 9.29 g/m*3 10.3 C 0 km/h
Sensor: Nr:Datum:Temp:Abs-Feuchte:Windchill:Wind:
Aussen-T/F 1176 09-10-2019 01:55:00 10.3 C 9.29 g/m*3 10.3 C 0 km/h
1177 09-10-2019 02:00:00 10.3 C 9.29 g/m*3 10.3 C 0 km/h
1178 09-10-2019 02:05:00 10.3 C 9.29 g/m*3 10.3 C 4.8 km/h
1179 09-10-2019 02:10:00 10.3 C 9.29 g/m*3 10.3 C 4.8 km/h
1180 09-10-2019 02:15:00 10.4 C 9.35 g/m*3 10.4 C 1.6 km/h
1181 09-10-2019 02:20:00 10.4 C 9.35 g/m*3 10.4 C 1.6 km/h
1182 09-10-2019 02:25:00 10.4 C 9.35 g/m*3 10.4 C 0 km/h
1183 09-10-2019 02:30:00 10.3 C 9.29 g/m*3 10.3 C 1.6 km/h
1184 09-10-2019 02:35:00 10.3 C 9.29 g/m*3 10.3 C 0 km/h
1185 09-10-2019 02:40:00 10.3 C 9.29 g/m*3 10.3 C 0 km/h
1186 09-10-2019 02:45:00 10.3 C 9.29 g/m*3 10.3 C 0 km/h
1187 09-10-2019 02:50:00 10.4 C 9.35 g/m*3 10.4 C 0 km/h
1188 09-10-2019 02:55:00 10.5 C 9.5 g/m*3 10.5 C 0 km/h
1189 09-10-2019 03:00:00 10.6 C 9.57 g/m*3 10.6 C 0 km/h
1190 09-10-2019 03:05:00 10.7 C 9.63 g/m*3 10.7 C 0 km/h
1191 09-10-2019 03:10:00 10.8 C 9.69 g/m*3 10.8 C 0 km/h
1192 09-10-2019 03:15:00 10.8 C 9.59 g/m*3 10.8 C 0 km/h
1193 09-10-2019 03:20:00 10.8 C 9.59 g/m*3 10.29 C 6.4 km/h
1194 09-10-2019 03:25:00 10.7 C 9.53 g/m*3 10.7 C 0 km/h
1195 09-10-2019 03:30:00 10.6 C 9.47 g/m*3 10.6 C 0 km/h
1196 09-10-2019 03:35:00 10.4 C 9.35 g/m*3 10.4 C 0 km/h
1197 09-10-2019 03:40:00 10.3 C 9.29 g/m*3 10.3 C 1.6 km/h
1198 09-10-2019 03:45:00 10.4 C 9.35 g/m*3 9.16 C 9.7 km/h
1199 09-10-2019 03:50:00 10.6 C 9.57 g/m*3 9.14 C 11.3 km/h
1200 09-10-2019 03:55:00 10.8 C 9.69 g/m*3 9.38 C 11.3 km/h
Sensor: Nr:Datum:Temp:Abs-Feuchte:Windchill:Wind:
Aussen-T/F 1201 09-10-2019 04:00:00 11 C 9.81 g/m*3 9.88 C 9.7 km/h
1202 09-10-2019 04:05:00 11.1 C 9.87 g/m*3 11.1 C 9.7 km/h
1203 09-10-2019 04:10:00 11.1 C 9.77 g/m*3 11.1 C 8.1 km/h
1204 09-10-2019 04:15:00 11.1 C 9.77 g/m*3 11.1 C 3.2 km/h
1205 09-10-2019 04:20:00 11.1 C 9.77 g/m*3 11.1 C 4.8 km/h
1206 09-10-2019 04:25:00 11 C 9.71 g/m*3 11 C 3.2 km/h
1207 09-10-2019 04:30:00 10.9 C 9.65 g/m*3 10.9 C 3.2 km/h
1208 09-10-2019 04:35:00 10.9 C 9.65 g/m*3 10.04 C 8.1 km/h
1209 09-10-2019 04:40:00 10.9 C 9.65 g/m*3 10.9 C 3.2 km/h
1210 09-10-2019 04:45:00 10.9 C 9.65 g/m*3 10.9 C 4.8 km/h
1211 09-10-2019 04:50:00 10.9 C 9.65 g/m*3 10.9 C 4.8 km/h
1212 09-10-2019 04:55:00 10.9 C 9.65 g/m*3 10.9 C 1.6 km/h
1213 09-10-2019 05:00:00 10.8 C 9.59 g/m*3 10.8 C 1.6 km/h
1214 09-10-2019 05:05:00 10.7 C 9.53 g/m*3 10.7 C 0 km/h
1215 09-10-2019 05:10:00 10.7 C 9.53 g/m*3 9.81 C 8.1 km/h
1216 09-10-2019 05:15:00 10.8 C 9.59 g/m*3 10.8 C 4.8 km/h
1217 09-10-2019 05:20:00 10.7 C 9.53 g/m*3 10.7 C 4.8 km/h
1218 09-10-2019 05:25:00 10.7 C 9.53 g/m*3 10.7 C 3.2 km/h
1219 09-10-2019 05:30:00 10.7 C 9.53 g/m*3 9.52 C 9.7 km/h
1220 09-10-2019 05:35:00 10.8 C 9.59 g/m*3 10.29 C 6.4 km/h
1221 09-10-2019 05:40:00 10.8 C 9.59 g/m*3 10.8 C 4.8 km/h
1222 09-10-2019 05:45:00 10.9 C 9.65 g/m*3 10.9 C 4.8 km/h
1223 09-10-2019 05:50:00 10.9 C 9.65 g/m*3 10.04 C 8.1 km/h
1224 09-10-2019 05:55:00 11 C 9.71 g/m*3 10.52 C 6.4 km/h
1225 09-10-2019 06:00:00 11 C 9.71 g/m*3 11 C 4.8 km/h
Sensor: Nr:Datum:Temp:Abs-Feuchte:Windchill:Wind:
Aussen-T/F 1226 09-10-2019 06:05:00 10.9 C 9.65 g/m*3 9.51 C 11.3 km/h
1227 09-10-2019 06:10:00 10.9 C 9.65 g/m*3 10.9 C 4.8 km/h
1228 09-10-2019 06:15:00 10.9 C 9.65 g/m*3 10.41 C 6.4 km/h
1229 09-10-2019 06:20:00 11 C 9.71 g/m*3 10.52 C 6.4 km/h
1230 09-10-2019 06:25:00 11 C 9.71 g/m*3 11 C 4.8 km/h
1231 09-10-2019 06:30:00 10.9 C 9.65 g/m*3 10.9 C 1.6 km/h
1232 09-10-2019 06:35:00 10.9 C 9.65 g/m*3 10.41 C 6.4 km/h
1233 09-10-2019 06:40:00 10.9 C 9.65 g/m*3 9.76 C 9.7 km/h
1234 09-10-2019 06:45:00 10.9 C 9.65 g/m*3 10.41 C 6.4 km/h
1235 09-10-2019 06:50:00 10.9 C 9.65 g/m*3 9.28 C 12.9 km/h
1236 09-10-2019 06:55:00 10.9 C 9.65 g/m*3 10.9 C 4.8 km/h
1237 09-10-2019 07:00:00 10.8 C 9.49 g/m*3 10.8 C 3.2 km/h
1238 09-10-2019 07:05:00 10.8 C 9.49 g/m*3 10.29 C 6.4 km/h
1239 09-10-2019 07:10:00 10.7 C 9.53 g/m*3 10.7 C 3.2 km/h
1240 09-10-2019 07:15:00 10.7 C 9.43 g/m*3 10.18 C 6.4 km/h
1241 09-10-2019 07:20:00 10.7 C 9.43 g/m*3 10.7 C 1.6 km/h
1242 09-10-2019 07:25:00 10.6 C 9.37 g/m*3 10.6 C 1.6 km/h
1243 09-10-2019 07:30:00 10.5 C 9.31 g/m*3 10.5 C 3.2 km/h
1244 09-10-2019 07:35:00 10.5 C 9.31 g/m*3 9.57 C 8.1 km/h
1245 09-10-2019 07:40:00 10.6 C 9.37 g/m*3 10.06 C 6.4 km/h
1246 09-10-2019 07:45:00 10.6 C 9.37 g/m*3 10.6 C 4.8 km/h
1247 09-10-2019 07:50:00 10.6 C 9.37 g/m*3 10.6 C 3.2 km/h
1248 09-10-2019 07:55:00 10.6 C 9.37 g/m*3 10.06 C 6.4 km/h
1249 09-10-2019 08:00:00 10.7 C 9.43 g/m*3 10.18 C 6.4 km/h
1250 09-10-2019 08:05:00 10.6 C 9.37 g/m*3 10.6 C 3.2 km/h
Sensor: Nr:Datum:Temp:Abs-Feuchte:Windchill:Wind:
Aussen-T/F 1251 09-10-2019 08:10:00 10.7 C 9.43 g/m*3 10.7 C 4.8 km/h
1252 09-10-2019 08:15:00 10.7 C 9.43 g/m*3 10.7 C 3.2 km/h
1253 09-10-2019 08:20:00 10.7 C 9.43 g/m*3 10.7 C 4.8 km/h
1254 09-10-2019 08:25:00 10.7 C 9.43 g/m*3 10.7 C 1.6 km/h
1255 09-10-2019 08:30:00 10.7 C 9.43 g/m*3 10.7 C 4.8 km/h
1256 09-10-2019 08:35:00 10.7 C 9.53 g/m*3 10.7 C 1.6 km/h
1257 09-10-2019 08:40:00 10.8 C 9.59 g/m*3 9.64 C 9.7 km/h
1258 09-10-2019 08:45:00 10.8 C 9.59 g/m*3 10.8 C 3.2 km/h
1259 09-10-2019 08:50:00 10.8 C 9.59 g/m*3 9.93 C 8.1 km/h
1260 09-10-2019 08:55:00 10.9 C 9.55 g/m*3 10.04 C 8.1 km/h
1261 09-10-2019 09:00:00 10.9 C 9.65 g/m*3 10.9 C 1.6 km/h
1262 09-10-2019 09:05:00 11 C 9.61 g/m*3 10.52 C 6.4 km/h
1263 09-10-2019 09:10:00 11 C 9.61 g/m*3 11 C 3.2 km/h
1264 09-10-2019 09:15:00 11 C 9.61 g/m*3 11 C 0 km/h
1265 09-10-2019 09:20:00 11 C 9.61 g/m*3 11 C 1.6 km/h
1266 09-10-2019 09:25:00 11.1 C 9.67 g/m*3 11.1 C 3.2 km/h
1267 09-10-2019 09:30:00 11.1 C 9.67 g/m*3 11.1 C 4.8 km/h
1268 09-10-2019 09:35:00 11.2 C 9.73 g/m*3 11.2 C 4.8 km/h
1269 09-10-2019 09:40:00 11.3 C 9.89 g/m*3 11.3 C 8.1 km/h
1270 09-10-2019 09:45:00 11.5 C 10.02 g/m*3 11.5 C 11.3 km/h
1271 09-10-2019 09:50:00 11.6 C 9.98 g/m*3 11.6 C 9.7 km/h
1272 09-10-2019 09:55:00 11.7 C 10.04 g/m*3 11.7 C 9.7 km/h
1273 09-10-2019 10:00:00 11.8 C 10 g/m*3 11.8 C 9.7 km/h
1274 09-10-2019 10:05:00 11.9 C 9.96 g/m*3 11.9 C 8.1 km/h
1275 09-10-2019 10:10:00 12.1 C 9.97 g/m*3 12.1 C 6.4 km/h
Sensor: Nr:Datum:Temp:Abs-Feuchte:Windchill:Wind:
Aussen-T/F 1276 09-10-2019 10:15:00 12.2 C 10.14 g/m*3 12.2 C 1.6 km/h
1277 09-10-2019 10:20:00 12.3 C 10.21 g/m*3 12.3 C 6.4 km/h
1278 09-10-2019 10:25:00 12.5 C 10.22 g/m*3 12.5 C 8.1 km/h
1279 09-10-2019 10:30:00 12.7 C 10.35 g/m*3 12.7 C 6.4 km/h
1280 09-10-2019 10:35:00 12.8 C 10.19 g/m*3 12.8 C 9.7 km/h
1281 09-10-2019 10:40:00 12.9 C 10.26 g/m*3 12.9 C 4.8 km/h
1282 09-10-2019 10:45:00 13 C 10.21 g/m*3 13 C 12.9 km/h
1283 09-10-2019 10:50:00 13.2 C 10.45 g/m*3 13.2 C 3.2 km/h
1284 09-10-2019 10:55:00 13.2 C 10.33 g/m*3 13.2 C 11.3 km/h
1285 09-10-2019 11:00:00 13.3 C 10.4 g/m*3 13.3 C 4.8 km/h
1286 09-10-2019 11:05:00 13.3 C 10.28 g/m*3 13.3 C 6.4 km/h
1287 09-10-2019 11:10:00 13.3 C 10.17 g/m*3 13.3 C 6.4 km/h
1288 09-10-2019 11:15:00 13.4 C 10.35 g/m*3 13.4 C 3.2 km/h
1289 09-10-2019 11:20:00 13.4 C 10.35 g/m*3 13.4 C 3.2 km/h
1290 09-10-2019 11:25:00 13.4 C 10.35 g/m*3 13.4 C 0 km/h
1291 09-10-2019 11:30:00 13.6 C 10.59 g/m*3 13.6 C 3.2 km/h
1292 09-10-2019 11:35:00 13.6 C 10.36 g/m*3 13.6 C 6.4 km/h
1293 09-10-2019 11:40:00 13.7 C 10.54 g/m*3 13.7 C 1.6 km/h
1294 09-10-2019 11:45:00 13.8 C 10.48 g/m*3 13.8 C 4.8 km/h
1295 09-10-2019 11:50:00 13.9 C 10.55 g/m*3 13.9 C 1.6 km/h
1296 09-10-2019 11:55:00 14 C 10.74 g/m*3 14 C 0 km/h
1297 09-10-2019 12:00:00 14 C 10.61 g/m*3 14 C 1.6 km/h
1298 09-10-2019 12:05:00 14.1 C 10.56 g/m*3 14.1 C 8.1 km/h
1299 09-10-2019 12:10:00 14.1 C 10.68 g/m*3 14.1 C 6.4 km/h
1300 09-10-2019 12:15:00 14.1 C 10.68 g/m*3 14.1 C 4.8 km/h
Sensor: Nr:Datum:Temp:Abs-Feuchte:Windchill:Wind:
Aussen-T/F 1301 09-10-2019 12:20:00 14 C 10.86 g/m*3 14 C 4.8 km/h
1302 09-10-2019 12:25:00 13.8 C 10.6 g/m*3 13.8 C 4.8 km/h
1303 09-10-2019 12:30:00 13.8 C 10.6 g/m*3 13.8 C 1.6 km/h
1304 09-10-2019 12:35:00 13.9 C 10.79 g/m*3 13.9 C 9.7 km/h
1305 09-10-2019 12:40:00 13.9 C 10.55 g/m*3 13.9 C 9.7 km/h
1306 09-10-2019 12:45:00 13.9 C 10.67 g/m*3 13.9 C 4.8 km/h
1307 09-10-2019 12:50:00 13.7 C 10.54 g/m*3 13.7 C 6.4 km/h
1308 09-10-2019 12:55:00 13.6 C 10.59 g/m*3 13.6 C 0 km/h
1309 09-10-2019 13:00:00 13.6 C 10.71 g/m*3 13.6 C 0 km/h
1310 09-10-2019 13:05:00 13.6 C 10.71 g/m*3 13.6 C 0 km/h
1311 09-10-2019 13:10:00 13.4 C 10.58 g/m*3 13.4 C 0 km/h
1312 09-10-2019 13:15:00 13.4 C 10.69 g/m*3 13.4 C 0 km/h
1313 09-10-2019 13:20:00 13.4 C 10.69 g/m*3 13.4 C 0 km/h
1314 09-10-2019 13:25:00 13.4 C 10.81 g/m*3 13.4 C 1.6 km/h
1315 09-10-2019 13:30:00 13.6 C 10.95 g/m*3 13.6 C 0 km/h
1316 09-10-2019 13:35:00 13.6 C 10.95 g/m*3 13.6 C 1.6 km/h
1317 09-10-2019 13:40:00 13.7 C 11.13 g/m*3 13.7 C 0 km/h
1318 09-10-2019 13:45:00 13.8 C 11.08 g/m*3 13.8 C 1.6 km/h
1319 09-10-2019 13:50:00 13.8 C 11.08 g/m*3 13.8 C 1.6 km/h
1320 09-10-2019 13:55:00 13.8 C 11.08 g/m*3 13.8 C 9.7 km/h
1321 09-10-2019 14:00:00 13.7 C 10.89 g/m*3 13.7 C 1.6 km/h
1322 09-10-2019 14:05:00 13.6 C 10.83 g/m*3 13.6 C 4.8 km/h
1323 09-10-2019 14:10:00 13.3 C 10.51 g/m*3 13.3 C 3.2 km/h
1324 09-10-2019 14:15:00 13.2 C 10.45 g/m*3 13.2 C 4.8 km/h
1325 09-10-2019 14:20:00 13.1 C 10.5 g/m*3 13.1 C 1.6 km/h
Sensor: Nr:Datum:Temp:Abs-Feuchte:Windchill:Wind:
Aussen-T/F 1326 09-10-2019 14:25:00 12.9 C 10.37 g/m*3 12.9 C 1.6 km/h
1327 09-10-2019 14:30:00 12.8 C 10.42 g/m*3 12.8 C 0 km/h
1328 09-10-2019 14:35:00 12.7 C 10.35 g/m*3 12.7 C 9.7 km/h
1329 09-10-2019 14:40:00 12.6 C 10.29 g/m*3 12.6 C 6.4 km/h
1330 09-10-2019 14:45:00 12.5 C 10.22 g/m*3 12.5 C 4.8 km/h
1331 09-10-2019 14:50:00 12.4 C 10.16 g/m*3 12.4 C 3.2 km/h
1332 09-10-2019 14:55:00 12.3 C 10.21 g/m*3 12.3 C 3.2 km/h
1333 09-10-2019 15:00:00 12.2 C 10.04 g/m*3 12.2 C 8.1 km/h
1334 09-10-2019 15:05:00 12.2 C 10.14 g/m*3 12.2 C 4.8 km/h
1335 09-10-2019 15:10:00 12.1 C 9.97 g/m*3 12.1 C 12.9 km/h
1336 09-10-2019 15:15:00 12.2 C 10.14 g/m*3 12.2 C 8.1 km/h
1337 09-10-2019 15:20:00 12.2 C 10.14 g/m*3 12.2 C 8.1 km/h
1338 09-10-2019 15:25:00 12.2 C 10.04 g/m*3 12.2 C 14.5 km/h
1339 09-10-2019 15:30:00 12.3 C 10.1 g/m*3 12.3 C 9.7 km/h
1340 09-10-2019 15:35:00 12.3 C 10.1 g/m*3 12.3 C 9.7 km/h
1341 09-10-2019 15:40:00 12.4 C 10.16 g/m*3 12.4 C 9.7 km/h
1342 09-10-2019 15:45:00 12.4 C 10.05 g/m*3 12.4 C 6.4 km/h
1343 09-10-2019 15:50:00 12.4 C 10.05 g/m*3 12.4 C 8.1 km/h
1344 09-10-2019 15:55:00 12.5 C 10.11 g/m*3 12.5 C 8.1 km/h
1345 09-10-2019 16:00:00 12.5 C 10 g/m*3 12.5 C 11.3 km/h
1346 09-10-2019 16:05:00 12.6 C 10.07 g/m*3 12.6 C 11.3 km/h
1347 09-10-2019 16:10:00 12.7 C 10.02 g/m*3 12.7 C 16.1 km/h
1348 09-10-2019 16:15:00 12.8 C 10.19 g/m*3 12.8 C 4.8 km/h
1349 09-10-2019 16:20:00 12.9 C 10.37 g/m*3 12.9 C 3.2 km/h
1350 09-10-2019 16:25:00 12.8 C 10.08 g/m*3 12.8 C 8.1 km/h
Sensor: Nr:Datum:Temp:Abs-Feuchte:Windchill:Wind:
Aussen-T/F 1351 09-10-2019 16:30:00 12.9 C 10.03 g/m*3 12.9 C 12.9 km/h
1352 09-10-2019 16:35:00 12.9 C 10.03 g/m*3 12.9 C 8.1 km/h
1353 09-10-2019 16:40:00 12.8 C 9.86 g/m*3 12.8 C 9.7 km/h
1354 09-10-2019 16:45:00 12.8 C 9.86 g/m*3 12.8 C 11.3 km/h
1355 09-10-2019 16:50:00 12.8 C 9.86 g/m*3 12.8 C 6.4 km/h
1356 09-10-2019 16:55:00 12.8 C 9.86 g/m*3 12.8 C 3.2 km/h
1357 09-10-2019 17:00:00 12.8 C 9.74 g/m*3 12.8 C 16.1 km/h
1358 09-10-2019 17:05:00 12.8 C 9.74 g/m*3 12.8 C 8.1 km/h
1359 09-10-2019 17:10:00 12.9 C 10.03 g/m*3 12.9 C 1.6 km/h
1360 09-10-2019 17:15:00 12.9 C 9.81 g/m*3 12.9 C 8.1 km/h
1361 09-10-2019 17:20:00 12.8 C 9.74 g/m*3 12.8 C 11.3 km/h
1362 09-10-2019 17:25:00 12.9 C 9.81 g/m*3 12.9 C 11.3 km/h
1363 09-10-2019 17:30:00 13.1 C 10.04 g/m*3 13.1 C 6.4 km/h
1364 09-10-2019 17:35:00 13.2 C 9.99 g/m*3 13.2 C 6.4 km/h
1365 09-10-2019 17:40:00 13.2 C 9.76 g/m*3 13.2 C 14.5 km/h
1366 09-10-2019 17:45:00 13.1 C 9.7 g/m*3 13.1 C 12.9 km/h
1367 09-10-2019 17:50:00 13.1 C 9.7 g/m*3 13.1 C 11.3 km/h
1368 09-10-2019 17:55:00 12.9 C 9.69 g/m*3 12.9 C 14.5 km/h
1369 09-10-2019 18:00:00 12.9 C 9.81 g/m*3 12.9 C 3.2 km/h
1370 09-10-2019 18:05:00 12.8 C 9.63 g/m*3 12.8 C 14.5 km/h
1371 09-10-2019 18:10:00 12.8 C 9.63 g/m*3 12.8 C 14.5 km/h
1372 09-10-2019 18:15:00 12.8 C 9.63 g/m*3 12.8 C 8.1 km/h
1373 09-10-2019 18:20:00 12.8 C 9.63 g/m*3 12.8 C 12.9 km/h
1374 09-10-2019 18:25:00 12.6 C 9.51 g/m*3 12.6 C 12.9 km/h
1375 09-10-2019 18:30:00 12.4 C 9.4 g/m*3 12.4 C 9.7 km/h
Sensor: Nr:Datum:Temp:Abs-Feuchte:Windchill:Wind:
Aussen-T/F 1376 09-10-2019 18:35:00 12.3 C 9.45 g/m*3 12.3 C 14.5 km/h
1377 09-10-2019 18:40:00 12.3 C 9.45 g/m*3 12.3 C 14.5 km/h
1378 09-10-2019 18:45:00 12.2 C 9.39 g/m*3 12.2 C 14.5 km/h
1379 09-10-2019 18:50:00 12.2 C 9.39 g/m*3 12.2 C 12.9 km/h
1380 09-10-2019 18:55:00 12.2 C 9.6 g/m*3 12.2 C 3.2 km/h
1381 09-10-2019 19:00:00 12.1 C 9.44 g/m*3 12.1 C 16.1 km/h
1382 09-10-2019 19:05:00 12.1 C 9.54 g/m*3 12.1 C 11.3 km/h
1383 09-10-2019 19:10:00 12.1 C 9.44 g/m*3 12.1 C 6.4 km/h
1384 09-10-2019 19:15:00 12.1 C 9.54 g/m*3 12.1 C 8.1 km/h
1385 09-10-2019 19:20:00 12 C 9.48 g/m*3 12 C 12.9 km/h
1386 09-10-2019 19:25:00 11.9 C 9.43 g/m*3 11.9 C 12.9 km/h
1387 09-10-2019 19:30:00 11.9 C 9.43 g/m*3 11.9 C 11.3 km/h
1388 09-10-2019 19:35:00 11.8 C 9.37 g/m*3 11.8 C 11.3 km/h
1389 09-10-2019 19:40:00 11.6 C 9.25 g/m*3 11.6 C 8.1 km/h
1390 09-10-2019 19:45:00 11.6 C 9.25 g/m*3 11.6 C 8.1 km/h
1391 09-10-2019 19:50:00 11.5 C 9.19 g/m*3 11.5 C 4.8 km/h
1392 09-10-2019 19:55:00 11.4 C 9.14 g/m*3 11.4 C 4.8 km/h
1393 09-10-2019 20:00:00 11.4 C 9.14 g/m*3 11.4 C 9.7 km/h
1394 09-10-2019 20:05:00 11.4 C 9.14 g/m*3 11.4 C 4.8 km/h
1395 09-10-2019 20:10:00 11.4 C 9.14 g/m*3 11.4 C 1.6 km/h
1396 09-10-2019 20:15:00 11.3 C 9.08 g/m*3 11.3 C 14.5 km/h
1397 09-10-2019 20:20:00 11.3 C 9.08 g/m*3 11.3 C 6.4 km/h
1398 09-10-2019 20:25:00 11.3 C 9.08 g/m*3 11.3 C 3.2 km/h
1399 09-10-2019 20:30:00 11.2 C 9.02 g/m*3 11.2 C 4.8 km/h
1400 09-10-2019 20:35:00 11.1 C 9.07 g/m*3 11.1 C 8.1 km/h
Sensor: Nr:Datum:Temp:Abs-Feuchte:Windchill:Wind:
Aussen-T/F 1401 09-10-2019 20:40:00 11.1 C 9.07 g/m*3 11.1 C 1.6 km/h
1402 09-10-2019 20:45:00 11 C 9.01 g/m*3 10.52 C 6.4 km/h
1403 09-10-2019 20:50:00 11 C 9.11 g/m*3 10.16 C 8.1 km/h
1404 09-10-2019 20:55:00 11 C 9.11 g/m*3 10.52 C 6.4 km/h
1405 09-10-2019 21:00:00 11 C 9.11 g/m*3 10.16 C 8.1 km/h
1406 09-10-2019 21:05:00 11.1 C 9.07 g/m*3 11.1 C 11.3 km/h
1407 09-10-2019 21:10:00 11.1 C 9.07 g/m*3 11.1 C 6.4 km/h
1408 09-10-2019 21:15:00 11.1 C 9.07 g/m*3 11.1 C 11.3 km/h
1409 09-10-2019 21:20:00 11.1 C 9.07 g/m*3 11.1 C 1.6 km/h
1410 09-10-2019 21:25:00 11.1 C 9.07 g/m*3 11.1 C 3.2 km/h
1411 09-10-2019 21:30:00 11 C 9.11 g/m*3 11 C 3.2 km/h
1412 09-10-2019 21:35:00 11 C 9.11 g/m*3 10.16 C 8.1 km/h
1413 09-10-2019 21:40:00 11 C 9.11 g/m*3 10.16 C 8.1 km/h
1414 09-10-2019 21:45:00 11 C 9.11 g/m*3 9.4 C 12.9 km/h
1415 09-10-2019 21:50:00 11.1 C 8.96 g/m*3 11.1 C 11.3 km/h
1416 09-10-2019 21:55:00 11.2 C 9.02 g/m*3 11.2 C 12.9 km/h
1417 09-10-2019 22:00:00 11.2 C 8.82 g/m*3 11.2 C 16.1 km/h
1418 09-10-2019 22:05:00 11.2 C 8.82 g/m*3 11.2 C 12.9 km/h
1419 09-10-2019 22:10:00 11.2 C 8.82 g/m*3 11.2 C 14.5 km/h
1420 09-10-2019 22:15:00 11.2 C 8.72 g/m*3 11.2 C 19.3 km/h
1421 09-10-2019 22:20:00 11.2 C 8.72 g/m*3 11.2 C 19.3 km/h
1422 09-10-2019 22:25:00 11.1 C 8.66 g/m*3 11.1 C 11.3 km/h
1423 09-10-2019 22:30:00 11.1 C 8.66 g/m*3 11.1 C 11.3 km/h
1424 09-10-2019 22:35:00 11.1 C 8.66 g/m*3 11.1 C 19.3 km/h
1425 09-10-2019 22:40:00 11.1 C 8.66 g/m*3 11.1 C 9.7 km/h
Sensor: Nr:Datum:Temp:Abs-Feuchte:Windchill:Wind:
Aussen-T/F 1426 09-10-2019 22:45:00 11 C 8.61 g/m*3 9.63 C 11.3 km/h
1427 09-10-2019 22:50:00 10.9 C 8.55 g/m*3 9.28 C 12.9 km/h
1428 09-10-2019 22:55:00 11 C 8.61 g/m*3 9.4 C 12.9 km/h
1429 09-10-2019 23:00:00 10.9 C 8.55 g/m*3 9.51 C 11.3 km/h
1430 09-10-2019 23:05:00 10.9 C 8.55 g/m*3 10.04 C 8.1 km/h
1431 09-10-2019 23:10:00 10.8 C 8.5 g/m*3 9.38 C 11.3 km/h
1432 09-10-2019 23:15:00 10.8 C 8.6 g/m*3 9.16 C 12.9 km/h
1433 09-10-2019 23:20:00 10.8 C 8.6 g/m*3 9.38 C 11.3 km/h
1434 09-10-2019 23:25:00 10.8 C 8.5 g/m*3 8.96 C 14.5 km/h
1435 09-10-2019 23:30:00 10.8 C 8.5 g/m*3 9.38 C 11.3 km/h
1436 09-10-2019 23:35:00 10.8 C 8.5 g/m*3 9.16 C 12.9 km/h
1437 09-10-2019 23:40:00 10.8 C 8.5 g/m*3 9.64 C 9.7 km/h
1438 09-10-2019 23:45:00 10.8 C 8.5 g/m*3 9.93 C 8.1 km/h
1439 09-10-2019 23:50:00 10.7 C 8.55 g/m*3 9.04 C 12.9 km/h
1440 09-10-2019 23:55:00 10.7 C 8.55 g/m*3 8.65 C 16.1 km/h
1441 10-10-2019 00:00:00 10.6 C 8.49 g/m*3 10.06 C 6.4 km/h
1442 10-10-2019 00:05:00 10.6 C 8.49 g/m*3 9.14 C 11.3 km/h
1443 10-10-2019 00:10:00 10.5 C 8.44 g/m*3 8.8 C 12.9 km/h
1444 10-10-2019 00:15:00 10.4 C 8.38 g/m*3 9.16 C 9.7 km/h
1445 10-10-2019 00:20:00 10.4 C 8.48 g/m*3 8.47 C 14.5 km/h
1446 10-10-2019 00:25:00 10.4 C 8.48 g/m*3 8.9 C 11.3 km/h
1447 10-10-2019 00:30:00 10.4 C 8.48 g/m*3 8.47 C 14.5 km/h
1448 10-10-2019 00:35:00 10.3 C 8.43 g/m*3 8.16 C 16.1 km/h
1449 10-10-2019 00:40:00 10.3 C 8.43 g/m*3 8.16 C 16.1 km/h
1450 10-10-2019 00:45:00 10.2 C 8.37 g/m*3 8.03 C 16.1 km/h
Sensor: Nr:Datum:Temp:Abs-Feuchte:Windchill:Wind:
Aussen-T/F 1451 10-10-2019 00:50:00 10.2 C 8.47 g/m*3 8.22 C 14.5 km/h
1452 10-10-2019 00:55:00 10.2 C 8.47 g/m*3 8.66 C 11.3 km/h
1453 10-10-2019 01:00:00 10.2 C 8.47 g/m*3 7.86 C 17.7 km/h
1454 10-10-2019 01:05:00 10.2 C 8.47 g/m*3 9.6 C 6.4 km/h
1455 10-10-2019 01:10:00 10.2 C 8.47 g/m*3 8.22 C 14.5 km/h
1456 10-10-2019 01:15:00 10.2 C 8.47 g/m*3 10.2 C 4.8 km/h
1457 10-10-2019 01:20:00 10.3 C 8.52 g/m*3 8.78 C 11.3 km/h
1458 10-10-2019 01:25:00 10.3 C 8.52 g/m*3 10.3 C 4.8 km/h
1459 10-10-2019 01:30:00 10.2 C 8.47 g/m*3 10.2 C 1.6 km/h
1460 10-10-2019 01:35:00 10.2 C 8.56 g/m*3 10.2 C 1.6 km/h
1461 10-10-2019 01:40:00 10.1 C 8.51 g/m*3 10.1 C 3.2 km/h
1462 10-10-2019 01:45:00 10.1 C 8.51 g/m*3 10.1 C 3.2 km/h
1463 10-10-2019 01:50:00 10 C 8.46 g/m*3 10 C 1.6 km/h
1464 10-10-2019 01:55:00 9.9 C 8.5 g/m*3 9.9 C 3.2 km/h
1465 10-10-2019 02:00:00 9.9 C 8.5 g/m*3 9.9 C 1.6 km/h
1466 10-10-2019 02:05:00 9.9 C 8.5 g/m*3 9.9 C 4.8 km/h
1467 10-10-2019 02:10:00 10.1 C 8.61 g/m*3 10.1 C 4.8 km/h
1468 10-10-2019 02:15:00 10.2 C 8.66 g/m*3 10.2 C 3.2 km/h
1469 10-10-2019 02:20:00 10.3 C 8.71 g/m*3 10.3 C 1.6 km/h
1470 10-10-2019 02:25:00 10.4 C 8.67 g/m*3 9.16 C 9.7 km/h
1471 10-10-2019 02:30:00 10.5 C 8.73 g/m*3 10.5 C 4.8 km/h
1472 10-10-2019 02:35:00 10.6 C 8.78 g/m*3 10.6 C 1.6 km/h
1473 10-10-2019 02:40:00 10.6 C 8.78 g/m*3 10.06 C 6.4 km/h
1474 10-10-2019 02:45:00 10.7 C 8.84 g/m*3 9.81 C 8.1 km/h
1475 10-10-2019 02:50:00 10.7 C 8.84 g/m*3 10.7 C 3.2 km/h
Sensor: Nr:Datum:Temp:Abs-Feuchte:Windchill:Wind:
Aussen-T/F 1476 10-10-2019 02:55:00 10.8 C 8.9 g/m*3 9.93 C 8.1 km/h
1477 10-10-2019 03:00:00 10.8 C 8.9 g/m*3 10.29 C 6.4 km/h
1478 10-10-2019 03:05:00 10.8 C 8.9 g/m*3 10.8 C 1.6 km/h
1479 10-10-2019 03:10:00 10.8 C 8.9 g/m*3 10.8 C 4.8 km/h
1480 10-10-2019 03:15:00 10.8 C 8.9 g/m*3 10.29 C 6.4 km/h
1481 10-10-2019 03:20:00 10.8 C 8.99 g/m*3 10.8 C 3.2 km/h
1482 10-10-2019 03:25:00 10.7 C 8.94 g/m*3 10.7 C 1.6 km/h
1483 10-10-2019 03:30:00 10.7 C 8.94 g/m*3 9.52 C 9.7 km/h
1484 10-10-2019 03:35:00 10.6 C 8.88 g/m*3 10.6 C 4.8 km/h
1485 10-10-2019 03:40:00 10.6 C 8.98 g/m*3 10.6 C 1.6 km/h
1486 10-10-2019 03:45:00 10.6 C 8.98 g/m*3 10.6 C 0 km/h
1487 10-10-2019 03:50:00 10.5 C 8.92 g/m*3 9.02 C 11.3 km/h
1488 10-10-2019 03:55:00 10.5 C 8.92 g/m*3 9.95 C 6.4 km/h
1489 10-10-2019 04:00:00 10.5 C 8.92 g/m*3 9.57 C 8.1 km/h
1490 10-10-2019 04:05:00 10.5 C 8.92 g/m*3 9.02 C 11.3 km/h
1491 10-10-2019 04:10:00 10.5 C 8.92 g/m*3 8.59 C 14.5 km/h
1492 10-10-2019 04:15:00 10.5 C 8.92 g/m*3 8.4 C 16.1 km/h
1493 10-10-2019 04:20:00 10.6 C 8.88 g/m*3 9.14 C 11.3 km/h
1494 10-10-2019 04:25:00 10.6 C 8.88 g/m*3 10.06 C 6.4 km/h
1495 10-10-2019 04:30:00 10.6 C 8.98 g/m*3 9.14 C 11.3 km/h
1496 10-10-2019 04:35:00 10.6 C 8.98 g/m*3 10.06 C 6.4 km/h
1497 10-10-2019 04:40:00 10.6 C 8.98 g/m*3 10.6 C 4.8 km/h
1498 10-10-2019 04:45:00 10.6 C 8.98 g/m*3 10.06 C 6.4 km/h
1499 10-10-2019 04:50:00 10.6 C 8.98 g/m*3 10.6 C 1.6 km/h
1500 10-10-2019 04:55:00 10.6 C 9.08 g/m*3 10.6 C 0 km/h
Sensor: Nr:Datum:Temp:Abs-Feuchte:Windchill:Wind:
Aussen-T/F 1501 10-10-2019 05:00:00 10.6 C 9.08 g/m*3 10.6 C 1.6 km/h
1502 10-10-2019 05:05:00 10.5 C 9.02 g/m*3 10.5 C 0 km/h
1503 10-10-2019 05:10:00 10.4 C 8.96 g/m*3 10.4 C 3.2 km/h
1504 10-10-2019 05:15:00 10.4 C 8.96 g/m*3 10.4 C 4.8 km/h
1505 10-10-2019 05:20:00 10.3 C 8.91 g/m*3 10.3 C 4.8 km/h
1506 10-10-2019 05:25:00 10.3 C 8.91 g/m*3 10.3 C 4.8 km/h
1507 10-10-2019 05:30:00 10.4 C 9.06 g/m*3 10.4 C 1.6 km/h
1508 10-10-2019 05:35:00 10.4 C 9.06 g/m*3 10.4 C 1.6 km/h
1509 10-10-2019 05:40:00 10.4 C 9.06 g/m*3 10.4 C 0 km/h
1510 10-10-2019 05:45:00 10.4 C 9.06 g/m*3 10.4 C 3.2 km/h
1511 10-10-2019 05:50:00 10.4 C 9.06 g/m*3 9.83 C 6.4 km/h
1512 10-10-2019 05:55:00 10.4 C 9.06 g/m*3 9.83 C 6.4 km/h
1513 10-10-2019 06:00:00 10.4 C 9.06 g/m*3 10.4 C 3.2 km/h
1514 10-10-2019 06:05:00 10.5 C 9.12 g/m*3 9.57 C 8.1 km/h
1515 10-10-2019 06:10:00 10.5 C 9.02 g/m*3 10.5 C 4.8 km/h
1516 10-10-2019 06:15:00 10.5 C 9.02 g/m*3 10.5 C 4.8 km/h
1517 10-10-2019 06:20:00 10.5 C 9.02 g/m*3 9.95 C 6.4 km/h
1518 10-10-2019 06:25:00 10.5 C 9.02 g/m*3 10.5 C 4.8 km/h
1519 10-10-2019 06:30:00 10.5 C 9.12 g/m*3 9.57 C 8.1 km/h
1520 10-10-2019 06:35:00 10.4 C 9.06 g/m*3 9.83 C 6.4 km/h
1521 10-10-2019 06:40:00 10.4 C 9.06 g/m*3 10.4 C 1.6 km/h
1522 10-10-2019 06:45:00 10.4 C 9.06 g/m*3 10.4 C 1.6 km/h
1523 10-10-2019 06:50:00 10.4 C 9.06 g/m*3 9.83 C 6.4 km/h
1524 10-10-2019 06:55:00 10.3 C 9 g/m*3 9.04 C 9.7 km/h
1525 10-10-2019 07:00:00 10.3 C 9 g/m*3 9.04 C 9.7 km/h
Sensor: Nr:Datum:Temp:Abs-Feuchte:Windchill:Wind:
Aussen-T/F 1526 10-10-2019 07:05:00 10.2 C 8.85 g/m*3 8.22 C 14.5 km/h
1527 10-10-2019 07:10:00 10.2 C 8.95 g/m*3 10.2 C 1.6 km/h
1528 10-10-2019 07:15:00 10.2 C 8.85 g/m*3 9.6 C 6.4 km/h
1529 10-10-2019 07:20:00 10.2 C 8.85 g/m*3 10.2 C 3.2 km/h
1530 10-10-2019 07:25:00 10.1 C 8.79 g/m*3 9.48 C 6.4 km/h
1531 10-10-2019 07:30:00 10.1 C 8.89 g/m*3 10.1 C 1.6 km/h
1532 10-10-2019 07:35:00 10.1 C 8.79 g/m*3 8.8 C 9.7 km/h
1533 10-10-2019 07:40:00 10 C 8.74 g/m*3 8.99 C 8.1 km/h
1534 10-10-2019 07:45:00 9.9 C 8.59 g/m*3 8.3 C 11.3 km/h
1535 10-10-2019 07:50:00 9.9 C 8.59 g/m*3 9.9 C 4.8 km/h
1536 10-10-2019 07:55:00 9.9 C 8.59 g/m*3 9.9 C 4.8 km/h
1537 10-10-2019 08:00:00 9.8 C 8.63 g/m*3 9.8 C 4.8 km/h
1538 10-10-2019 08:05:00 9.8 C 8.54 g/m*3 9.8 C 1.6 km/h
1539 10-10-2019 08:10:00 9.8 C 8.63 g/m*3 9.8 C 4.8 km/h
1540 10-10-2019 08:15:00 9.7 C 8.48 g/m*3 8.33 C 9.7 km/h
1541 10-10-2019 08:20:00 9.7 C 8.48 g/m*3 7.82 C 12.9 km/h
1542 10-10-2019 08:25:00 9.7 C 8.48 g/m*3 9.02 C 6.4 km/h
1543 10-10-2019 08:30:00 9.7 C 8.48 g/m*3 8.33 C 9.7 km/h
1544 10-10-2019 08:35:00 9.8 C 8.54 g/m*3 8.18 C 11.3 km/h
1545 10-10-2019 08:40:00 9.8 C 8.54 g/m*3 9.8 C 4.8 km/h
1546 10-10-2019 08:45:00 9.9 C 8.59 g/m*3 9.25 C 6.4 km/h
1547 10-10-2019 08:50:00 10 C 8.64 g/m*3 9.37 C 6.4 km/h
1548 10-10-2019 08:55:00 10.1 C 8.7 g/m*3 8.8 C 9.7 km/h
1549 10-10-2019 09:00:00 10.3 C 8.71 g/m*3 9.34 C 8.1 km/h
1550 10-10-2019 09:05:00 10.3 C 8.62 g/m*3 8.55 C 12.9 km/h
Sensor: Nr:Datum:Temp:Abs-Feuchte:Windchill:Wind:
Aussen-T/F 1551 10-10-2019 09:10:00 10.4 C 8.67 g/m*3 8.9 C 11.3 km/h
1552 10-10-2019 09:15:00 10.5 C 8.73 g/m*3 9.95 C 6.4 km/h
1553 10-10-2019 09:20:00 10.6 C 8.78 g/m*3 10.06 C 6.4 km/h
1554 10-10-2019 09:25:00 10.7 C 8.84 g/m*3 9.81 C 8.1 km/h
1555 10-10-2019 09:30:00 10.7 C 8.84 g/m*3 9.81 C 8.1 km/h
1556 10-10-2019 09:35:00 10.8 C 8.8 g/m*3 9.38 C 11.3 km/h
1557 10-10-2019 09:40:00 10.8 C 8.8 g/m*3 10.29 C 6.4 km/h
1558 10-10-2019 09:45:00 10.9 C 8.85 g/m*3 10.9 C 3.2 km/h
1559 10-10-2019 09:50:00 11 C 8.81 g/m*3 9.02 C 16.1 km/h
1560 10-10-2019 09:55:00 11.1 C 8.96 g/m*3 11.1 C 11.3 km/h
1561 10-10-2019 10:00:00 11.1 C 8.86 g/m*3 11.1 C 9.7 km/h
1562 10-10-2019 10:05:00 11.1 C 8.86 g/m*3 11.1 C 11.3 km/h
1563 10-10-2019 10:10:00 11.1 C 8.76 g/m*3 11.1 C 12.9 km/h
1564 10-10-2019 10:15:00 11.1 C 8.76 g/m*3 11.1 C 12.9 km/h
1565 10-10-2019 10:20:00 11.2 C 8.82 g/m*3 11.2 C 16.1 km/h
1566 10-10-2019 10:25:00 11.2 C 8.82 g/m*3 11.2 C 11.3 km/h
1567 10-10-2019 10:30:00 11.2 C 8.82 g/m*3 11.2 C 16.1 km/h
1568 10-10-2019 10:35:00 11.3 C 8.98 g/m*3 11.3 C 6.4 km/h
1569 10-10-2019 10:40:00 11.4 C 8.93 g/m*3 11.4 C 12.9 km/h
1570 10-10-2019 10:45:00 11.6 C 9.04 g/m*3 11.6 C 8.1 km/h
1571 10-10-2019 10:50:00 11.6 C 8.94 g/m*3 11.6 C 11.3 km/h
1572 10-10-2019 10:55:00 11.6 C 8.94 g/m*3 11.6 C 12.9 km/h
1573 10-10-2019 11:00:00 11.7 C 8.89 g/m*3 11.7 C 12.9 km/h
1574 10-10-2019 11:05:00 11.8 C 8.95 g/m*3 11.8 C 17.7 km/h
1575 10-10-2019 11:10:00 11.9 C 9 g/m*3 11.9 C 17.7 km/h
Sensor: Nr:Datum:Temp:Abs-Feuchte:Windchill:Wind:
Aussen-T/F 1576 10-10-2019 11:15:00 12 C 9.06 g/m*3 12 C 12.9 km/h
1577 10-10-2019 11:20:00 12.2 C 9.17 g/m*3 12.2 C 11.3 km/h
1578 10-10-2019 11:25:00 12.4 C 9.07 g/m*3 12.4 C 12.9 km/h
1579 10-10-2019 11:30:00 12.6 C 9.18 g/m*3 12.6 C 16.1 km/h
1580 10-10-2019 11:35:00 12.6 C 9.18 g/m*3 12.6 C 9.7 km/h
1581 10-10-2019 11:40:00 12.7 C 9.24 g/m*3 12.7 C 11.3 km/h
1582 10-10-2019 11:45:00 12.7 C 9.24 g/m*3 12.7 C 12.9 km/h
1583 10-10-2019 11:50:00 12.7 C 9.35 g/m*3 12.7 C 12.9 km/h
1584 10-10-2019 11:55:00 12.7 C 9.24 g/m*3 12.7 C 6.4 km/h
1585 10-10-2019 12:00:00 12.7 C 9.13 g/m*3 12.7 C 12.9 km/h
1586 10-10-2019 12:05:00 12.9 C 9.24 g/m*3 12.9 C 12.9 km/h
1587 10-10-2019 12:10:00 13.2 C 9.3 g/m*3 13.2 C 17.7 km/h
1588 10-10-2019 12:15:00 13.3 C 9.24 g/m*3 13.3 C 11.3 km/h
1589 10-10-2019 12:20:00 13.3 C 9.13 g/m*3 13.3 C 16.1 km/h
1590 10-10-2019 12:25:00 13.3 C 9.01 g/m*3 13.3 C 19.3 km/h
1591 10-10-2019 12:30:00 13.4 C 9.07 g/m*3 13.4 C 16.1 km/h
1592 10-10-2019 12:35:00 13.4 C 9.07 g/m*3 13.4 C 11.3 km/h
1593 10-10-2019 12:40:00 13.6 C 9.18 g/m*3 13.6 C 12.9 km/h
1594 10-10-2019 12:45:00 13.6 C 8.83 g/m*3 13.6 C 12.9 km/h
1595 10-10-2019 12:50:00 13.7 C 8.88 g/m*3 13.7 C 12.9 km/h
1596 10-10-2019 12:55:00 13.8 C 9.06 g/m*3 13.8 C 12.9 km/h
1597 10-10-2019 13:00:00 13.9 C 9.11 g/m*3 13.9 C 11.3 km/h
1598 10-10-2019 13:05:00 14.1 C 9.22 g/m*3 14.1 C 12.9 km/h
1599 10-10-2019 13:10:00 14.2 C 8.91 g/m*3 14.2 C 20.9 km/h
1600 10-10-2019 13:15:00 14.3 C 9.09 g/m*3 14.3 C 11.3 km/h
Sensor: Nr:Datum:Temp:Abs-Feuchte:Windchill:Wind:
Aussen-T/F 1601 10-10-2019 13:20:00 14.3 C 8.72 g/m*3 14.3 C 20.9 km/h
1602 10-10-2019 13:25:00 14.3 C 8.72 g/m*3 14.3 C 14.5 km/h
1603 10-10-2019 13:30:00 14.4 C 8.78 g/m*3 14.4 C 17.7 km/h
1604 10-10-2019 13:35:00 14.5 C 8.58 g/m*3 14.5 C 20.9 km/h
1605 10-10-2019 13:40:00 14.5 C 8.33 g/m*3 14.5 C 20.9 km/h
1606 10-10-2019 13:45:00 14.4 C 8.41 g/m*3 14.4 C 19.3 km/h
1607 10-10-2019 13:50:00 14.3 C 8.48 g/m*3 14.3 C 14.5 km/h
1608 10-10-2019 13:55:00 14.2 C 8.43 g/m*3 14.2 C 12.9 km/h
1609 10-10-2019 14:00:00 14.3 C 8.48 g/m*3 14.3 C 16.1 km/h
1610 10-10-2019 14:05:00 14.3 C 8.48 g/m*3 14.3 C 17.7 km/h
1611 10-10-2019 14:10:00 14.4 C 9.15 g/m*3 14.4 C 6.4 km/h
1612 10-10-2019 14:15:00 14.4 C 8.9 g/m*3 14.4 C 6.4 km/h
1613 10-10-2019 14:20:00 14.6 C 9.01 g/m*3 14.6 C 14.5 km/h
1614 10-10-2019 14:25:00 14.7 C 9.32 g/m*3 14.7 C 4.8 km/h
1615 10-10-2019 14:30:00 14.6 C 9.01 g/m*3 14.6 C 12.9 km/h
1616 10-10-2019 14:35:00 14.5 C 9.33 g/m*3 14.5 C 14.5 km/h
1617 10-10-2019 14:40:00 14.4 C 9.15 g/m*3 14.4 C 16.1 km/h
1618 10-10-2019 14:45:00 14.5 C 9.58 g/m*3 14.5 C 8.1 km/h
1619 10-10-2019 14:50:00 14.8 C 9.63 g/m*3 14.8 C 14.5 km/h
1620 10-10-2019 14:55:00 14.9 C 9.43 g/m*3 14.9 C 14.5 km/h
1621 10-10-2019 15:00:00 15 C 9.49 g/m*3 15 C 12.9 km/h
1622 10-10-2019 15:05:00 15 C 9.62 g/m*3 15 C 11.3 km/h
1623 10-10-2019 15:10:00 15 C 9.36 g/m*3 15 C 11.3 km/h
1624 10-10-2019 15:15:00 15 C 9.49 g/m*3 15 C 8.1 km/h
1625 10-10-2019 15:20:00 15.2 C 9.22 g/m*3 15.2 C 20.9 km/h
Sensor: Nr:Datum:Temp:Abs-Feuchte:Windchill:Wind:
Aussen-T/F 1626 10-10-2019 15:25:00 15.2 C 9.35 g/m*3 15.2 C 20.9 km/h
1627 10-10-2019 15:30:00 15.2 C 9.22 g/m*3 15.2 C 14.5 km/h
1628 10-10-2019 15:35:00 15.2 C 9.09 g/m*3 15.2 C 11.3 km/h
1629 10-10-2019 15:40:00 15.2 C 9.35 g/m*3 15.2 C 12.9 km/h
1630 10-10-2019 15:45:00 15.1 C 9.29 g/m*3 15.1 C 11.3 km/h
1631 10-10-2019 15:50:00 15.1 C 9.29 g/m*3 15.1 C 9.7 km/h
1632 10-10-2019 15:55:00 14.9 C 9.18 g/m*3 14.9 C 8.1 km/h
1633 10-10-2019 16:00:00 15 C 9.23 g/m*3 15 C 8.1 km/h
1634 10-10-2019 16:05:00 15.2 C 9.22 g/m*3 15.2 C 11.3 km/h
1635 10-10-2019 16:10:00 15.5 C 9.25 g/m*3 15.5 C 11.3 km/h
1636 10-10-2019 16:15:00 15.7 C 9.1 g/m*3 15.7 C 19.3 km/h
1637 10-10-2019 16:20:00 15.6 C 9.04 g/m*3 15.6 C 12.9 km/h
1638 10-10-2019 16:25:00 15.6 C 9.58 g/m*3 15.6 C 11.3 km/h
1639 10-10-2019 16:30:00 15.7 C 9.37 g/m*3 15.7 C 8.1 km/h
1640 10-10-2019 16:45:00 15.2 C 9.22 g/m*3 15.2 C 12.9 km/h
1641 10-10-2019 16:55:00 14.9 C 9.81 g/m*3 14.9 C 12.9 km/h
1642 10-10-2019 17:00:00 14.4 C 9.64 g/m*3 14.4 C 12.9 km/h
1643 10-10-2019 17:05:00 14 C 9.53 g/m*3 14 C 14.5 km/h
1644 10-10-2019 17:10:00 13.9 C 9.83 g/m*3 13.9 C 11.3 km/h
1645 10-10-2019 17:15:00 13.9 C 9.71 g/m*3 13.9 C 9.7 km/h
1646 10-10-2019 17:20:00 14 C 9.77 g/m*3 14 C 8.1 km/h
1647 10-10-2019 17:25:00 13.9 C 9.83 g/m*3 13.9 C 4.8 km/h
1648 10-10-2019 17:30:00 13.8 C 9.65 g/m*3 13.8 C 9.7 km/h
1649 10-10-2019 17:35:00 13.7 C 9.59 g/m*3 13.7 C 12.9 km/h
1650 10-10-2019 17:40:00 13.6 C 9.42 g/m*3 13.6 C 11.3 km/h
Sensor: Nr:Datum:Temp:Abs-Feuchte:Windchill:Wind:
Aussen-T/F 1651 10-10-2019 17:45:00 13.6 C 9.3 g/m*3 13.6 C 11.3 km/h
1652 10-10-2019 17:50:00 13.6 C 9.53 g/m*3 13.6 C 6.4 km/h
1653 10-10-2019 17:55:00 13.6 C 9.65 g/m*3 13.6 C 3.2 km/h
1654 10-10-2019 18:00:00 13.5 C 9.59 g/m*3 13.5 C 3.2 km/h
1655 10-10-2019 18:05:00 13.4 C 9.65 g/m*3 13.4 C 3.2 km/h
1656 10-10-2019 18:10:00 13.3 C 9.47 g/m*3 13.3 C 11.3 km/h
1657 10-10-2019 18:15:00 13.3 C 9.36 g/m*3 13.3 C 4.8 km/h
1658 10-10-2019 18:20:00 13.4 C 9.65 g/m*3 13.4 C 9.7 km/h
1659 10-10-2019 18:25:00 13.4 C 9.53 g/m*3 13.4 C 3.2 km/h
1660 10-10-2019 18:30:00 13.3 C 9.7 g/m*3 13.3 C 1.6 km/h
1661 10-10-2019 18:35:00 13.3 C 9.7 g/m*3 13.3 C 3.2 km/h
1662 10-10-2019 18:40:00 13.1 C 9.59 g/m*3 13.1 C 1.6 km/h
1663 10-10-2019 18:45:00 12.9 C 9.47 g/m*3 12.9 C 1.6 km/h
1664 10-10-2019 18:50:00 12.7 C 9.35 g/m*3 12.7 C 3.2 km/h
1665 10-10-2019 18:55:00 12.6 C 9.29 g/m*3 12.6 C 3.2 km/h
1666 10-10-2019 19:00:00 12.4 C 9.29 g/m*3 12.4 C 1.6 km/h
1667 10-10-2019 19:05:00 12.3 C 9.34 g/m*3 12.3 C 1.6 km/h
1668 10-10-2019 19:10:00 12.1 C 9.22 g/m*3 12.1 C 1.6 km/h
1669 10-10-2019 19:15:00 11.9 C 9.21 g/m*3 11.9 C 1.6 km/h
1670 10-10-2019 19:20:00 11.8 C 9.16 g/m*3 11.8 C 1.6 km/h
1671 10-10-2019 19:25:00 11.6 C 9.15 g/m*3 11.6 C 1.6 km/h
1672 10-10-2019 19:30:00 11.5 C 9.09 g/m*3 11.5 C 1.6 km/h
1673 10-10-2019 19:35:00 11.4 C 9.14 g/m*3 11.4 C 9.7 km/h
1674 10-10-2019 19:40:00 11.3 C 9.08 g/m*3 11.3 C 4.8 km/h
1675 10-10-2019 19:45:00 11.3 C 9.18 g/m*3 11.3 C 3.2 km/h
Sensor: Nr:Datum:Temp:Abs-Feuchte:Windchill:Wind:
Aussen-T/F 1676 10-10-2019 19:50:00 11.3 C 9.18 g/m*3 11.3 C 6.4 km/h
1677 10-10-2019 19:55:00 11.3 C 9.18 g/m*3 11.3 C 6.4 km/h
1678 10-10-2019 20:00:00 11.4 C 9.14 g/m*3 11.4 C 12.9 km/h
1679 10-10-2019 20:05:00 11.6 C 9.25 g/m*3 11.6 C 6.4 km/h
1680 10-10-2019 20:10:00 11.7 C 9.2 g/m*3 11.7 C 4.8 km/h
1681 10-10-2019 20:15:00 11.7 C 9.2 g/m*3 11.7 C 4.8 km/h
1682 10-10-2019 20:20:00 11.7 C 9.2 g/m*3 11.7 C 4.8 km/h
1683 10-10-2019 20:25:00 11.8 C 9.26 g/m*3 11.8 C 3.2 km/h
1684 10-10-2019 20:30:00 11.8 C 9.26 g/m*3 11.8 C 8.1 km/h
1685 10-10-2019 20:35:00 11.8 C 9.26 g/m*3 11.8 C 3.2 km/h
1686 10-10-2019 20:40:00 11.8 C 9.26 g/m*3 11.8 C 4.8 km/h
1687 10-10-2019 20:45:00 11.7 C 9.2 g/m*3 11.7 C 3.2 km/h
1688 10-10-2019 20:50:00 11.7 C 9.2 g/m*3 11.7 C 1.6 km/h
1689 10-10-2019 20:55:00 11.6 C 9.25 g/m*3 11.6 C 1.6 km/h
1690 10-10-2019 21:00:00 11.4 C 9.14 g/m*3 11.4 C 1.6 km/h
1691 10-10-2019 21:05:00 11.4 C 9.14 g/m*3 11.4 C 0 km/h
1692 10-10-2019 21:10:00 11.3 C 9.18 g/m*3 11.3 C 0 km/h
1693 10-10-2019 21:15:00 11.2 C 9.12 g/m*3 11.2 C 0 km/h
1694 10-10-2019 21:20:00 11.1 C 9.07 g/m*3 11.1 C 0 km/h
1695 10-10-2019 21:25:00 10.9 C 8.95 g/m*3 10.9 C 0 km/h
1696 10-10-2019 21:30:00 10.8 C 8.99 g/m*3 10.8 C 0 km/h
1697 10-10-2019 21:35:00 10.7 C 8.94 g/m*3 10.7 C 0 km/h
1698 10-10-2019 21:40:00 10.6 C 8.88 g/m*3 10.6 C 0 km/h
1699 10-10-2019 21:45:00 10.5 C 8.92 g/m*3 10.5 C 0 km/h
1700 10-10-2019 21:50:00 10.4 C 8.87 g/m*3 10.4 C 0 km/h
Sensor: Nr:Datum:Temp:Abs-Feuchte:Windchill:Wind:
Aussen-T/F 1701 10-10-2019 21:55:00 10.3 C 8.81 g/m*3 10.3 C 1.6 km/h
1702 10-10-2019 22:00:00 10.3 C 8.91 g/m*3 10.3 C 0 km/h
1703 10-10-2019 22:05:00 10.2 C 8.85 g/m*3 10.2 C 0 km/h
1704 10-10-2019 22:10:00 10.2 C 8.85 g/m*3 10.2 C 0 km/h
1705 10-10-2019 22:15:00 10.2 C 8.85 g/m*3 10.2 C 1.6 km/h
1706 10-10-2019 22:20:00 10.2 C 8.95 g/m*3 10.2 C 0 km/h
1707 10-10-2019 22:25:00 10.2 C 8.95 g/m*3 10.2 C 0 km/h
1708 10-10-2019 22:30:00 10.2 C 8.95 g/m*3 10.2 C 0 km/h
1709 10-10-2019 22:35:00 10.2 C 8.95 g/m*3 10.2 C 0 km/h
1710 10-10-2019 22:40:00 10.2 C 8.95 g/m*3 10.2 C 0 km/h
1711 10-10-2019 22:45:00 10.1 C 8.89 g/m*3 10.1 C 0 km/h
1712 10-10-2019 22:50:00 10.1 C 8.89 g/m*3 10.1 C 0 km/h
1713 10-10-2019 22:55:00 10.1 C 8.89 g/m*3 10.1 C 0 km/h
1714 10-10-2019 23:00:00 10.1 C 8.89 g/m*3 10.1 C 1.6 km/h
1715 10-10-2019 23:05:00 10.1 C 8.98 g/m*3 10.1 C 0 km/h
1716 10-10-2019 23:10:00 10 C 8.93 g/m*3 10 C 0 km/h
1717 10-10-2019 23:15:00 9.9 C 8.78 g/m*3 9.9 C 0 km/h
1718 10-10-2019 23:20:00 9.8 C 8.72 g/m*3 9.8 C 0 km/h
1719 10-10-2019 23:25:00 9.8 C 8.72 g/m*3 9.8 C 0 km/h
1720 10-10-2019 23:30:00 9.7 C 8.67 g/m*3 9.7 C 0 km/h
1721 10-10-2019 23:35:00 9.6 C 8.61 g/m*3 9.6 C 0 km/h
1722 10-10-2019 23:40:00 9.6 C 8.7 g/m*3 9.6 C 4.8 km/h
1723 10-10-2019 23:45:00 9.7 C 8.76 g/m*3 9.7 C 1.6 km/h
1724 10-10-2019 23:50:00 9.7 C 8.76 g/m*3 9.7 C 0 km/h
1725 10-10-2019 23:55:00 9.6 C 8.7 g/m*3 9.6 C 3.2 km/h

Legende:
   Min
   Max


Maximal/Minimal-Werte vom 05.10.2019 - 10.10.2019

Sensor Min Max Avg
Temp
(Aussen-T/F)
6.4 °C
06-10-2019  01:30:00
15.7 °C
10-10-2019  16:15:00
10.88 °C
Abs-Feuchte
(Aussen-T/F)
7 g/m*3
06-10-2019  01:30:00
11.65 g/m*3
08-10-2019  17:35:00
9.16 g/m*3
Windchill
(Aussen-T/F)
6.4 C
06-10-2019  01:30:00
15.7 C
10-10-2019  16:15:00
10.76 C

Die Daten stammen von einer Davis Vantage Pro 2 Wetter-Station und werden unter Linux mit der Software wview2wettercgi und aufbereitet. Alle Angaben erfolgen ohne Gewähr für ihre Vollständigkeit oder Richtigkeit.
Kontakt: Rainer Krienke krienke@uni-koblenz.de . Meine Webseiten an der Uni Koblenz oder privat.
Version: $Revision: 0.78 $